<?xml version="1.0"?>
<gpx xmlns="http://www.topografix.com/GPX/1/1" xmlns:xsi="http://www.w3.org/2001/XMLSchema-instance" version="1.1" creator="GPX RubyGem 1.0.0 -- http://dougfales.github.io/gpx/" xsi:schemaLocation="http://www.topografix.com/GPX/1/1 http://www.topografix.com/GPX/1/1/gpx.xsd">
  <metadata>
    <name/>
    <time>2026-05-07T22:07:41+00:00</time>
    <bound minlat="90.0" minlon="180.0" maxlat="-90.0" maxlon="-180.0"/>
  </metadata>
  <trk>
    <name/>
    <trkseg>
      <trkpt lat="42.713566" lon="-0.05064">
        <time>1970-01-01T00:00:00+00:00</time>
        <ele>2210.0</ele>
      </trkpt>
      <trkpt lat="42.71362" lon="-0.050717">
        <time>1970-01-01T00:00:00+00:00</time>
        <ele>2210.0</ele>
      </trkpt>
      <trkpt lat="42.713409" lon="-0.050888">
        <time>1970-01-01T00:00:00+00:00</time>
        <ele>2206.0</ele>
      </trkpt>
      <trkpt lat="42.713152" lon="-0.051278">
        <time>1970-01-01T00:00:00+00:00</time>
        <ele>2202.0</ele>
      </trkpt>
      <trkpt lat="42.712873" lon="-0.051954">
        <time>1970-01-01T00:00:00+00:00</time>
        <ele>2196.0</ele>
      </trkpt>
      <trkpt lat="42.7122" lon="-0.055154">
        <time>1970-01-01T00:00:00+00:00</time>
        <ele>2199.0</ele>
      </trkpt>
      <trkpt lat="42.712014" lon="-0.05567">
        <time>1970-01-01T00:00:00+00:00</time>
        <ele>2199.0</ele>
      </trkpt>
      <trkpt lat="42.711721" lon="-0.056214">
        <time>1970-01-01T00:00:00+00:00</time>
        <ele>2197.0</ele>
      </trkpt>
      <trkpt lat="42.711436" lon="-0.05654">
        <time>1970-01-01T00:00:00+00:00</time>
        <ele>2197.0</ele>
      </trkpt>
      <trkpt lat="42.711055" lon="-0.056722">
        <time>1970-01-01T00:00:00+00:00</time>
        <ele>2193.0</ele>
      </trkpt>
      <trkpt lat="42.710782" lon="-0.057031">
        <time>1970-01-01T00:00:00+00:00</time>
        <ele>2192.0</ele>
      </trkpt>
      <trkpt lat="42.710324" lon="-0.057651">
        <time>1970-01-01T00:00:00+00:00</time>
        <ele>2189.0</ele>
      </trkpt>
      <trkpt lat="42.70978" lon="-0.058639">
        <time>1970-01-01T00:00:00+00:00</time>
        <ele>2197.0</ele>
      </trkpt>
      <trkpt lat="42.70886" lon="-0.059506">
        <time>1970-01-01T00:00:00+00:00</time>
        <ele>2198.0</ele>
      </trkpt>
      <trkpt lat="42.708485" lon="-0.060011">
        <time>1970-01-01T00:00:00+00:00</time>
        <ele>2206.0</ele>
      </trkpt>
      <trkpt lat="42.707473" lon="-0.060946">
        <time>1970-01-01T00:00:00+00:00</time>
        <ele>2212.0</ele>
      </trkpt>
      <trkpt lat="42.707284" lon="-0.061257">
        <time>1970-01-01T00:00:00+00:00</time>
        <ele>2215.0</ele>
      </trkpt>
      <trkpt lat="42.707102" lon="-0.061798">
        <time>1970-01-01T00:00:00+00:00</time>
        <ele>2222.0</ele>
      </trkpt>
      <trkpt lat="42.706444" lon="-0.062522">
        <time>1970-01-01T00:00:00+00:00</time>
        <ele>2232.0</ele>
      </trkpt>
      <trkpt lat="42.705564" lon="-0.063125">
        <time>1970-01-01T00:00:00+00:00</time>
        <ele>2242.0</ele>
      </trkpt>
      <trkpt lat="42.704558" lon="-0.063539">
        <time>1970-01-01T00:00:00+00:00</time>
        <ele>2253.0</ele>
      </trkpt>
      <trkpt lat="42.704243" lon="-0.063607">
        <time>1970-01-01T00:00:00+00:00</time>
        <ele>2254.0</ele>
      </trkpt>
      <trkpt lat="42.703951" lon="-0.06386">
        <time>1970-01-01T00:00:00+00:00</time>
        <ele>2264.0</ele>
      </trkpt>
      <trkpt lat="42.703715" lon="-0.063956">
        <time>1970-01-01T00:00:00+00:00</time>
        <ele>2277.0</ele>
      </trkpt>
      <trkpt lat="42.703557" lon="-0.06365">
        <time>1970-01-01T00:00:00+00:00</time>
        <ele>2290.0</ele>
      </trkpt>
      <trkpt lat="42.703498" lon="-0.063374">
        <time>1970-01-01T00:00:00+00:00</time>
        <ele>2297.0</ele>
      </trkpt>
      <trkpt lat="42.70351" lon="-0.062923">
        <time>1970-01-01T00:00:00+00:00</time>
        <ele>2301.0</ele>
      </trkpt>
      <trkpt lat="42.703413" lon="-0.062309">
        <time>1970-01-01T00:00:00+00:00</time>
        <ele>2310.0</ele>
      </trkpt>
      <trkpt lat="42.703431" lon="-0.062083">
        <time>1970-01-01T00:00:00+00:00</time>
        <ele>2308.0</ele>
      </trkpt>
      <trkpt lat="42.703337" lon="-0.061897">
        <time>1970-01-01T00:00:00+00:00</time>
        <ele>2313.0</ele>
      </trkpt>
      <trkpt lat="42.70326" lon="-0.061481">
        <time>1970-01-01T00:00:00+00:00</time>
        <ele>2319.0</ele>
      </trkpt>
      <trkpt lat="42.703243" lon="-0.061123">
        <time>1970-01-01T00:00:00+00:00</time>
        <ele>2322.0</ele>
      </trkpt>
      <trkpt lat="42.7033" lon="-0.060905">
        <time>1970-01-01T00:00:00+00:00</time>
        <ele>2320.0</ele>
      </trkpt>
      <trkpt lat="42.703214" lon="-0.060347">
        <time>1970-01-01T00:00:00+00:00</time>
        <ele>2325.0</ele>
      </trkpt>
      <trkpt lat="42.703228" lon="-0.060093">
        <time>1970-01-01T00:00:00+00:00</time>
        <ele>2323.0</ele>
      </trkpt>
      <trkpt lat="42.703118" lon="-0.059515">
        <time>1970-01-01T00:00:00+00:00</time>
        <ele>2322.0</ele>
      </trkpt>
      <trkpt lat="42.703033" lon="-0.059344">
        <time>1970-01-01T00:00:00+00:00</time>
        <ele>2322.0</ele>
      </trkpt>
      <trkpt lat="42.702978" lon="-0.058924">
        <time>1970-01-01T00:00:00+00:00</time>
        <ele>2320.0</ele>
      </trkpt>
      <trkpt lat="42.702822" lon="-0.058692">
        <time>1970-01-01T00:00:00+00:00</time>
        <ele>2320.0</ele>
      </trkpt>
      <trkpt lat="42.702862" lon="-0.058424">
        <time>1970-01-01T00:00:00+00:00</time>
        <ele>2319.0</ele>
      </trkpt>
      <trkpt lat="42.702789" lon="-0.057896">
        <time>1970-01-01T00:00:00+00:00</time>
        <ele>2317.0</ele>
      </trkpt>
      <trkpt lat="42.702642" lon="-0.057518">
        <time>1970-01-01T00:00:00+00:00</time>
        <ele>2319.0</ele>
      </trkpt>
      <trkpt lat="42.702657" lon="-0.057062">
        <time>1970-01-01T00:00:00+00:00</time>
        <ele>2316.0</ele>
      </trkpt>
      <trkpt lat="42.702488" lon="-0.056614">
        <time>1970-01-01T00:00:00+00:00</time>
        <ele>2318.0</ele>
      </trkpt>
      <trkpt lat="42.702625" lon="-0.0563">
        <time>1970-01-01T00:00:00+00:00</time>
        <ele>2313.0</ele>
      </trkpt>
      <trkpt lat="42.702278" lon="-0.055879">
        <time>1970-01-01T00:00:00+00:00</time>
        <ele>2315.0</ele>
      </trkpt>
      <trkpt lat="42.702187" lon="-0.055686">
        <time>1970-01-01T00:00:00+00:00</time>
        <ele>2316.0</ele>
      </trkpt>
      <trkpt lat="42.702228" lon="-0.055392">
        <time>1970-01-01T00:00:00+00:00</time>
        <ele>2315.0</ele>
      </trkpt>
      <trkpt lat="42.702121" lon="-0.054685">
        <time>1970-01-01T00:00:00+00:00</time>
        <ele>2318.0</ele>
      </trkpt>
      <trkpt lat="42.702334" lon="-0.054127">
        <time>1970-01-01T00:00:00+00:00</time>
        <ele>2315.0</ele>
      </trkpt>
      <trkpt lat="42.702329" lon="-0.05354">
        <time>1970-01-01T00:00:00+00:00</time>
        <ele>2317.0</ele>
      </trkpt>
      <trkpt lat="42.702378" lon="-0.053439">
        <time>1970-01-01T00:00:00+00:00</time>
        <ele>2316.0</ele>
      </trkpt>
      <trkpt lat="42.702341" lon="-0.053223">
        <time>1970-01-01T00:00:00+00:00</time>
        <ele>2317.0</ele>
      </trkpt>
      <trkpt lat="42.702469" lon="-0.052416">
        <time>1970-01-01T00:00:00+00:00</time>
        <ele>2312.0</ele>
      </trkpt>
      <trkpt lat="42.702429" lon="-0.052277">
        <time>1970-01-01T00:00:00+00:00</time>
        <ele>2313.0</ele>
      </trkpt>
      <trkpt lat="42.702468" lon="-0.051841">
        <time>1970-01-01T00:00:00+00:00</time>
        <ele>2314.0</ele>
      </trkpt>
      <trkpt lat="42.702299" lon="-0.051438">
        <time>1970-01-01T00:00:00+00:00</time>
        <ele>2322.0</ele>
      </trkpt>
      <trkpt lat="42.702316" lon="-0.051318">
        <time>1970-01-01T00:00:00+00:00</time>
        <ele>2321.0</ele>
      </trkpt>
      <trkpt lat="42.702228" lon="-0.050983">
        <time>1970-01-01T00:00:00+00:00</time>
        <ele>2326.0</ele>
      </trkpt>
      <trkpt lat="42.70236" lon="-0.050747">
        <time>1970-01-01T00:00:00+00:00</time>
        <ele>2321.0</ele>
      </trkpt>
      <trkpt lat="42.702073" lon="-0.050155">
        <time>1970-01-01T00:00:00+00:00</time>
        <ele>2338.0</ele>
      </trkpt>
      <trkpt lat="42.702014" lon="-0.049882">
        <time>1970-01-01T00:00:00+00:00</time>
        <ele>2343.0</ele>
      </trkpt>
      <trkpt lat="42.702053" lon="-0.0496">
        <time>1970-01-01T00:00:00+00:00</time>
        <ele>2344.0</ele>
      </trkpt>
      <trkpt lat="42.702008" lon="-0.049402">
        <time>1970-01-01T00:00:00+00:00</time>
        <ele>2348.0</ele>
      </trkpt>
      <trkpt lat="42.702057" lon="-0.049145">
        <time>1970-01-01T00:00:00+00:00</time>
        <ele>2349.0</ele>
      </trkpt>
      <trkpt lat="42.701994" lon="-0.048921">
        <time>1970-01-01T00:00:00+00:00</time>
        <ele>2353.0</ele>
      </trkpt>
      <trkpt lat="42.702071" lon="-0.048674">
        <time>1970-01-01T00:00:00+00:00</time>
        <ele>2352.0</ele>
      </trkpt>
      <trkpt lat="42.701974" lon="-0.048489">
        <time>1970-01-01T00:00:00+00:00</time>
        <ele>2356.0</ele>
      </trkpt>
      <trkpt lat="42.702079" lon="-0.048089">
        <time>1970-01-01T00:00:00+00:00</time>
        <ele>2353.0</ele>
      </trkpt>
      <trkpt lat="42.702025" lon="-0.047738">
        <time>1970-01-01T00:00:00+00:00</time>
        <ele>2353.0</ele>
      </trkpt>
      <trkpt lat="42.701756" lon="-0.047449">
        <time>1970-01-01T00:00:00+00:00</time>
        <ele>2362.0</ele>
      </trkpt>
      <trkpt lat="42.701483" lon="-0.046618">
        <time>1970-01-01T00:00:00+00:00</time>
        <ele>2373.0</ele>
      </trkpt>
      <trkpt lat="42.701454" lon="-0.0461">
        <time>1970-01-01T00:00:00+00:00</time>
        <ele>2375.0</ele>
      </trkpt>
      <trkpt lat="42.701532" lon="-0.045795">
        <time>1970-01-01T00:00:00+00:00</time>
        <ele>2373.0</ele>
      </trkpt>
      <trkpt lat="42.70137" lon="-0.045086">
        <time>1970-01-01T00:00:00+00:00</time>
        <ele>2380.0</ele>
      </trkpt>
      <trkpt lat="42.701378" lon="-0.044514">
        <time>1970-01-01T00:00:00+00:00</time>
        <ele>2381.0</ele>
      </trkpt>
      <trkpt lat="42.701214" lon="-0.043957">
        <time>1970-01-01T00:00:00+00:00</time>
        <ele>2383.0</ele>
      </trkpt>
      <trkpt lat="42.701113" lon="-0.043789">
        <time>1970-01-01T00:00:00+00:00</time>
        <ele>2386.0</ele>
      </trkpt>
      <trkpt lat="42.700994" lon="-0.042741">
        <time>1970-01-01T00:00:00+00:00</time>
        <ele>2378.0</ele>
      </trkpt>
      <trkpt lat="42.700829" lon="-0.042548">
        <time>1970-01-01T00:00:00+00:00</time>
        <ele>2383.0</ele>
      </trkpt>
      <trkpt lat="42.700804" lon="-0.042427">
        <time>1970-01-01T00:00:00+00:00</time>
        <ele>2383.0</ele>
      </trkpt>
      <trkpt lat="42.700748" lon="-0.041522">
        <time>1970-01-01T00:00:00+00:00</time>
        <ele>2384.0</ele>
      </trkpt>
      <trkpt lat="42.700959" lon="-0.040895">
        <time>1970-01-01T00:00:00+00:00</time>
        <ele>2376.0</ele>
      </trkpt>
      <trkpt lat="42.700919" lon="-0.040654">
        <time>1970-01-01T00:00:00+00:00</time>
        <ele>2379.0</ele>
      </trkpt>
      <trkpt lat="42.700961" lon="-0.040534">
        <time>1970-01-01T00:00:00+00:00</time>
        <ele>2376.0</ele>
      </trkpt>
      <trkpt lat="42.700718" lon="-0.039785">
        <time>1970-01-01T00:00:00+00:00</time>
        <ele>2384.0</ele>
      </trkpt>
      <trkpt lat="42.700451" lon="-0.038131">
        <time>1970-01-01T00:00:00+00:00</time>
        <ele>2411.0</ele>
      </trkpt>
      <trkpt lat="42.700329" lon="-0.038104">
        <time>1970-01-01T00:00:00+00:00</time>
        <ele>2417.0</ele>
      </trkpt>
      <trkpt lat="42.700063" lon="-0.037877">
        <time>1970-01-01T00:00:00+00:00</time>
        <ele>2426.0</ele>
      </trkpt>
      <trkpt lat="42.70006" lon="-0.038213">
        <time>1970-01-01T00:00:00+00:00</time>
        <ele>2432.0</ele>
      </trkpt>
      <trkpt lat="42.700001" lon="-0.038191">
        <time>1970-01-01T00:00:00+00:00</time>
        <ele>2435.0</ele>
      </trkpt>
      <trkpt lat="42.699818" lon="-0.037934">
        <time>1970-01-01T00:00:00+00:00</time>
        <ele>2439.0</ele>
      </trkpt>
      <trkpt lat="42.699548" lon="-0.037779">
        <time>1970-01-01T00:00:00+00:00</time>
        <ele>2449.0</ele>
      </trkpt>
      <trkpt lat="42.699424" lon="-0.037494">
        <time>1970-01-01T00:00:00+00:00</time>
        <ele>2459.0</ele>
      </trkpt>
      <trkpt lat="42.699365" lon="-0.037185">
        <time>1970-01-01T00:00:00+00:00</time>
        <ele>2465.0</ele>
      </trkpt>
      <trkpt lat="42.69929" lon="-0.037029">
        <time>1970-01-01T00:00:00+00:00</time>
        <ele>2471.0</ele>
      </trkpt>
      <trkpt lat="42.69923" lon="-0.037025">
        <time>1970-01-01T00:00:00+00:00</time>
        <ele>2475.0</ele>
      </trkpt>
      <trkpt lat="42.699249" lon="-0.03693">
        <time>1970-01-01T00:00:00+00:00</time>
        <ele>2474.0</ele>
      </trkpt>
      <trkpt lat="42.699102" lon="-0.036801">
        <time>1970-01-01T00:00:00+00:00</time>
        <ele>2485.0</ele>
      </trkpt>
      <trkpt lat="42.69909" lon="-0.036547">
        <time>1970-01-01T00:00:00+00:00</time>
        <ele>2491.0</ele>
      </trkpt>
      <trkpt lat="42.698865" lon="-0.036342">
        <time>1970-01-01T00:00:00+00:00</time>
        <ele>2506.0</ele>
      </trkpt>
      <trkpt lat="42.698772" lon="-0.036031">
        <time>1970-01-01T00:00:00+00:00</time>
        <ele>2521.0</ele>
      </trkpt>
      <trkpt lat="42.698657" lon="-0.036052">
        <time>1970-01-01T00:00:00+00:00</time>
        <ele>2525.0</ele>
      </trkpt>
      <trkpt lat="42.698683" lon="-0.035924">
        <time>1970-01-01T00:00:00+00:00</time>
        <ele>2529.0</ele>
      </trkpt>
      <trkpt lat="42.6984" lon="-0.03605">
        <time>1970-01-01T00:00:00+00:00</time>
        <ele>2533.0</ele>
      </trkpt>
      <trkpt lat="42.698418" lon="-0.035788">
        <time>1970-01-01T00:00:00+00:00</time>
        <ele>2542.0</ele>
      </trkpt>
      <trkpt lat="42.698239" lon="-0.035754">
        <time>1970-01-01T00:00:00+00:00</time>
        <ele>2548.0</ele>
      </trkpt>
      <trkpt lat="42.697748" lon="-0.035897">
        <time>1970-01-01T00:00:00+00:00</time>
        <ele>2555.0</ele>
      </trkpt>
      <trkpt lat="42.697708" lon="-0.035747">
        <time>1970-01-01T00:00:00+00:00</time>
        <ele>2561.0</ele>
      </trkpt>
      <trkpt lat="42.697537" lon="-0.035637">
        <time>1970-01-01T00:00:00+00:00</time>
        <ele>2568.0</ele>
      </trkpt>
      <trkpt lat="42.697406" lon="-0.035294">
        <time>1970-01-01T00:00:00+00:00</time>
        <ele>2575.0</ele>
      </trkpt>
      <trkpt lat="42.697458" lon="-0.035212">
        <time>1970-01-01T00:00:00+00:00</time>
        <ele>2577.0</ele>
      </trkpt>
      <trkpt lat="42.6977" lon="-0.03526">
        <time>1970-01-01T00:00:00+00:00</time>
        <ele>2577.0</ele>
      </trkpt>
      <trkpt lat="42.697762" lon="-0.035066">
        <time>1970-01-01T00:00:00+00:00</time>
        <ele>2586.0</ele>
      </trkpt>
      <trkpt lat="42.697714" lon="-0.034973">
        <time>1970-01-01T00:00:00+00:00</time>
        <ele>2589.0</ele>
      </trkpt>
      <trkpt lat="42.696956" lon="-0.034727">
        <time>1970-01-01T00:00:00+00:00</time>
        <ele>2591.0</ele>
      </trkpt>
      <trkpt lat="42.696795" lon="-0.034318">
        <time>1970-01-01T00:00:00+00:00</time>
        <ele>2582.0</ele>
      </trkpt>
      <trkpt lat="42.696766" lon="-0.033966">
        <time>1970-01-01T00:00:00+00:00</time>
        <ele>2570.0</ele>
      </trkpt>
      <trkpt lat="42.696088" lon="-0.033526">
        <time>1970-01-01T00:00:00+00:00</time>
        <ele>2579.0</ele>
      </trkpt>
      <trkpt lat="42.695903" lon="-0.033476">
        <time>1970-01-01T00:00:00+00:00</time>
        <ele>2579.0</ele>
      </trkpt>
      <trkpt lat="42.69575" lon="-0.033578">
        <time>1970-01-01T00:00:00+00:00</time>
        <ele>2583.0</ele>
      </trkpt>
      <trkpt lat="42.695589" lon="-0.033511">
        <time>1970-01-01T00:00:00+00:00</time>
        <ele>2583.0</ele>
      </trkpt>
      <trkpt lat="42.695506" lon="-0.033555">
        <time>1970-01-01T00:00:00+00:00</time>
        <ele>2586.0</ele>
      </trkpt>
      <trkpt lat="42.695038" lon="-0.033502">
        <time>1970-01-01T00:00:00+00:00</time>
        <ele>2599.0</ele>
      </trkpt>
      <trkpt lat="42.694677" lon="-0.033788">
        <time>1970-01-01T00:00:00+00:00</time>
        <ele>2622.0</ele>
      </trkpt>
      <trkpt lat="42.694201" lon="-0.03401">
        <time>1970-01-01T00:00:00+00:00</time>
        <ele>2652.0</ele>
      </trkpt>
      <trkpt lat="42.694109" lon="-0.034211">
        <time>1970-01-01T00:00:00+00:00</time>
        <ele>2663.0</ele>
      </trkpt>
      <trkpt lat="42.694017" lon="-0.034265">
        <time>1970-01-01T00:00:00+00:00</time>
        <ele>2670.0</ele>
      </trkpt>
      <trkpt lat="42.693813" lon="-0.034894">
        <time>1970-01-01T00:00:00+00:00</time>
        <ele>2690.0</ele>
      </trkpt>
      <trkpt lat="42.693722" lon="-0.034892">
        <time>1970-01-01T00:00:00+00:00</time>
        <ele>2697.0</ele>
      </trkpt>
      <trkpt lat="42.693577" lon="-0.034754">
        <time>1970-01-01T00:00:00+00:00</time>
        <ele>2706.0</ele>
      </trkpt>
      <trkpt lat="42.693126" lon="-0.034159">
        <time>1970-01-01T00:00:00+00:00</time>
        <ele>2723.0</ele>
      </trkpt>
      <trkpt lat="42.692972" lon="-0.034294">
        <time>1970-01-01T00:00:00+00:00</time>
        <ele>2730.0</ele>
      </trkpt>
      <trkpt lat="42.692865" lon="-0.03425">
        <time>1970-01-01T00:00:00+00:00</time>
        <ele>2731.0</ele>
      </trkpt>
      <trkpt lat="42.692573" lon="-0.034301">
        <time>1970-01-01T00:00:00+00:00</time>
        <ele>2730.0</ele>
      </trkpt>
      <trkpt lat="42.692418" lon="-0.034486">
        <time>1970-01-01T00:00:00+00:00</time>
        <ele>2730.0</ele>
      </trkpt>
      <trkpt lat="42.692297" lon="-0.034482">
        <time>1970-01-01T00:00:00+00:00</time>
        <ele>2732.0</ele>
      </trkpt>
      <trkpt lat="42.692041" lon="-0.034655">
        <time>1970-01-01T00:00:00+00:00</time>
        <ele>2746.0</ele>
      </trkpt>
      <trkpt lat="42.69171" lon="-0.034524">
        <time>1970-01-01T00:00:00+00:00</time>
        <ele>2763.0</ele>
      </trkpt>
      <trkpt lat="42.691481" lon="-0.034557">
        <time>1970-01-01T00:00:00+00:00</time>
        <ele>2781.0</ele>
      </trkpt>
      <trkpt lat="42.69127" lon="-0.034184">
        <time>1970-01-01T00:00:00+00:00</time>
        <ele>2788.0</ele>
      </trkpt>
      <trkpt lat="42.691078" lon="-0.034001">
        <time>1970-01-01T00:00:00+00:00</time>
        <ele>2789.0</ele>
      </trkpt>
      <trkpt lat="42.69108" lon="-0.034159">
        <time>1970-01-01T00:00:00+00:00</time>
        <ele>2792.0</ele>
      </trkpt>
      <trkpt lat="42.690934" lon="-0.033945">
        <time>1970-01-01T00:00:00+00:00</time>
        <ele>2784.0</ele>
      </trkpt>
      <trkpt lat="42.690837" lon="-0.033298">
        <time>1970-01-01T00:00:00+00:00</time>
        <ele>2788.0</ele>
      </trkpt>
      <trkpt lat="42.690732" lon="-0.033102">
        <time>1970-01-01T00:00:00+00:00</time>
        <ele>2790.0</ele>
      </trkpt>
      <trkpt lat="42.690658" lon="-0.03308">
        <time>1970-01-01T00:00:00+00:00</time>
        <ele>2787.0</ele>
      </trkpt>
      <trkpt lat="42.690693" lon="-0.032887">
        <time>1970-01-01T00:00:00+00:00</time>
        <ele>2801.0</ele>
      </trkpt>
      <trkpt lat="42.690557" lon="-0.032557">
        <time>1970-01-01T00:00:00+00:00</time>
        <ele>2809.0</ele>
      </trkpt>
      <trkpt lat="42.690577" lon="-0.032149">
        <time>1970-01-01T00:00:00+00:00</time>
        <ele>2835.0</ele>
      </trkpt>
      <trkpt lat="42.690311" lon="-0.031968">
        <time>1970-01-01T00:00:00+00:00</time>
        <ele>2834.0</ele>
      </trkpt>
      <trkpt lat="42.690225" lon="-0.031779">
        <time>1970-01-01T00:00:00+00:00</time>
        <ele>2842.0</ele>
      </trkpt>
      <trkpt lat="42.690117" lon="-0.031788">
        <time>1970-01-01T00:00:00+00:00</time>
        <ele>2828.0</ele>
      </trkpt>
      <trkpt lat="42.689953" lon="-0.031611">
        <time>1970-01-01T00:00:00+00:00</time>
        <ele>2821.0</ele>
      </trkpt>
      <trkpt lat="42.689865" lon="-0.031377">
        <time>1970-01-01T00:00:00+00:00</time>
        <ele>2826.0</ele>
      </trkpt>
      <trkpt lat="42.689733" lon="-0.03137">
        <time>1970-01-01T00:00:00+00:00</time>
        <ele>2812.0</ele>
      </trkpt>
      <trkpt lat="42.689758" lon="-0.031114">
        <time>1970-01-01T00:00:00+00:00</time>
        <ele>2824.0</ele>
      </trkpt>
      <trkpt lat="42.689497" lon="-0.030922">
        <time>1970-01-01T00:00:00+00:00</time>
        <ele>2807.0</ele>
      </trkpt>
      <trkpt lat="42.68962" lon="-0.031418">
        <time>1970-01-01T00:00:00+00:00</time>
        <ele>2795.0</ele>
      </trkpt>
      <trkpt lat="42.689479" lon="-0.031237">
        <time>1970-01-01T00:00:00+00:00</time>
        <ele>2790.0</ele>
      </trkpt>
      <trkpt lat="42.689102" lon="-0.031357">
        <time>1970-01-01T00:00:00+00:00</time>
        <ele>2735.0</ele>
      </trkpt>
      <trkpt lat="42.688491" lon="-0.030792">
        <time>1970-01-01T00:00:00+00:00</time>
        <ele>2727.0</ele>
      </trkpt>
      <trkpt lat="42.688306" lon="-0.030723">
        <time>1970-01-01T00:00:00+00:00</time>
        <ele>2727.0</ele>
      </trkpt>
      <trkpt lat="42.688326" lon="-0.030538">
        <time>1970-01-01T00:00:00+00:00</time>
        <ele>2741.0</ele>
      </trkpt>
      <trkpt lat="42.688209" lon="-0.030502">
        <time>1970-01-01T00:00:00+00:00</time>
        <ele>2742.0</ele>
      </trkpt>
      <trkpt lat="42.688127" lon="-0.030321">
        <time>1970-01-01T00:00:00+00:00</time>
        <ele>2753.0</ele>
      </trkpt>
      <trkpt lat="42.68803" lon="-0.03044">
        <time>1970-01-01T00:00:00+00:00</time>
        <ele>2743.0</ele>
      </trkpt>
      <trkpt lat="42.687836" lon="-0.030182">
        <time>1970-01-01T00:00:00+00:00</time>
        <ele>2756.0</ele>
      </trkpt>
      <trkpt lat="42.687549" lon="-0.03">
        <time>1970-01-01T00:00:00+00:00</time>
        <ele>2753.0</ele>
      </trkpt>
      <trkpt lat="42.687547" lon="-0.029667">
        <time>1970-01-01T00:00:00+00:00</time>
        <ele>2766.0</ele>
      </trkpt>
      <trkpt lat="42.687358" lon="-0.029603">
        <time>1970-01-01T00:00:00+00:00</time>
        <ele>2758.0</ele>
      </trkpt>
      <trkpt lat="42.687309" lon="-0.029407">
        <time>1970-01-01T00:00:00+00:00</time>
        <ele>2766.0</ele>
      </trkpt>
      <trkpt lat="42.68711" lon="-0.029247">
        <time>1970-01-01T00:00:00+00:00</time>
        <ele>2765.0</ele>
      </trkpt>
      <trkpt lat="42.686918" lon="-0.02896">
        <time>1970-01-01T00:00:00+00:00</time>
        <ele>2770.0</ele>
      </trkpt>
      <trkpt lat="42.686611" lon="-0.028402">
        <time>1970-01-01T00:00:00+00:00</time>
        <ele>2785.0</ele>
      </trkpt>
      <trkpt lat="42.686519" lon="-0.028101">
        <time>1970-01-01T00:00:00+00:00</time>
        <ele>2804.0</ele>
      </trkpt>
      <trkpt lat="42.686266" lon="-0.027875">
        <time>1970-01-01T00:00:00+00:00</time>
        <ele>2800.0</ele>
      </trkpt>
      <trkpt lat="42.686" lon="-0.027318">
        <time>1970-01-01T00:00:00+00:00</time>
        <ele>2811.0</ele>
      </trkpt>
      <trkpt lat="42.685861" lon="-0.027247">
        <time>1970-01-01T00:00:00+00:00</time>
        <ele>2800.0</ele>
      </trkpt>
      <trkpt lat="42.685628" lon="-0.026641">
        <time>1970-01-01T00:00:00+00:00</time>
        <ele>2791.0</ele>
      </trkpt>
      <trkpt lat="42.685666" lon="-0.025519">
        <time>1970-01-01T00:00:00+00:00</time>
        <ele>2776.0</ele>
      </trkpt>
      <trkpt lat="42.685957" lon="-0.024881">
        <time>1970-01-01T00:00:00+00:00</time>
        <ele>2797.0</ele>
      </trkpt>
      <trkpt lat="42.685946" lon="-0.024342">
        <time>1970-01-01T00:00:00+00:00</time>
        <ele>2803.0</ele>
      </trkpt>
      <trkpt lat="42.686022" lon="-0.024232">
        <time>1970-01-01T00:00:00+00:00</time>
        <ele>2805.0</ele>
      </trkpt>
      <trkpt lat="42.686105" lon="-0.024252">
        <time>1970-01-01T00:00:00+00:00</time>
        <ele>2808.0</ele>
      </trkpt>
      <trkpt lat="42.686326" lon="-0.023878">
        <time>1970-01-01T00:00:00+00:00</time>
        <ele>2812.0</ele>
      </trkpt>
      <trkpt lat="42.686346" lon="-0.023745">
        <time>1970-01-01T00:00:00+00:00</time>
        <ele>2810.0</ele>
      </trkpt>
      <trkpt lat="42.686436" lon="-0.023676">
        <time>1970-01-01T00:00:00+00:00</time>
        <ele>2815.0</ele>
      </trkpt>
      <trkpt lat="42.686617" lon="-0.023092">
        <time>1970-01-01T00:00:00+00:00</time>
        <ele>2824.0</ele>
      </trkpt>
      <trkpt lat="42.686804" lon="-0.023045">
        <time>1970-01-01T00:00:00+00:00</time>
        <ele>2830.0</ele>
      </trkpt>
      <trkpt lat="42.686912" lon="-0.022709">
        <time>1970-01-01T00:00:00+00:00</time>
        <ele>2837.0</ele>
      </trkpt>
      <trkpt lat="42.68691" lon="-0.022422">
        <time>1970-01-01T00:00:00+00:00</time>
        <ele>2842.0</ele>
      </trkpt>
      <trkpt lat="42.686825" lon="-0.022274">
        <time>1970-01-01T00:00:00+00:00</time>
        <ele>2840.0</ele>
      </trkpt>
      <trkpt lat="42.686743" lon="-0.021776">
        <time>1970-01-01T00:00:00+00:00</time>
        <ele>2846.0</ele>
      </trkpt>
      <trkpt lat="42.686428" lon="-0.021447">
        <time>1970-01-01T00:00:00+00:00</time>
        <ele>2836.0</ele>
      </trkpt>
      <trkpt lat="42.686202" lon="-0.021348">
        <time>1970-01-01T00:00:00+00:00</time>
        <ele>2821.0</ele>
      </trkpt>
      <trkpt lat="42.686093" lon="-0.021201">
        <time>1970-01-01T00:00:00+00:00</time>
        <ele>2816.0</ele>
      </trkpt>
      <trkpt lat="42.6861" lon="-0.021071">
        <time>1970-01-01T00:00:00+00:00</time>
        <ele>2821.0</ele>
      </trkpt>
      <trkpt lat="42.68601" lon="-0.020901">
        <time>1970-01-01T00:00:00+00:00</time>
        <ele>2818.0</ele>
      </trkpt>
      <trkpt lat="42.685596" lon="-0.020287">
        <time>1970-01-01T00:00:00+00:00</time>
        <ele>2800.0</ele>
      </trkpt>
      <trkpt lat="42.685579" lon="-0.020138">
        <time>1970-01-01T00:00:00+00:00</time>
        <ele>2804.0</ele>
      </trkpt>
      <trkpt lat="42.685253" lon="-0.019923">
        <time>1970-01-01T00:00:00+00:00</time>
        <ele>2790.0</ele>
      </trkpt>
      <trkpt lat="42.685027" lon="-0.019594">
        <time>1970-01-01T00:00:00+00:00</time>
        <ele>2787.0</ele>
      </trkpt>
      <trkpt lat="42.684785" lon="-0.01906">
        <time>1970-01-01T00:00:00+00:00</time>
        <ele>2788.0</ele>
      </trkpt>
      <trkpt lat="42.684683" lon="-0.018587">
        <time>1970-01-01T00:00:00+00:00</time>
        <ele>2805.0</ele>
      </trkpt>
      <trkpt lat="42.684514" lon="-0.018425">
        <time>1970-01-01T00:00:00+00:00</time>
        <ele>2797.0</ele>
      </trkpt>
      <trkpt lat="42.684288" lon="-0.017896">
        <time>1970-01-01T00:00:00+00:00</time>
        <ele>2811.0</ele>
      </trkpt>
      <trkpt lat="42.684175" lon="-0.017428">
        <time>1970-01-01T00:00:00+00:00</time>
        <ele>2829.0</ele>
      </trkpt>
      <trkpt lat="42.683991" lon="-0.016964">
        <time>1970-01-01T00:00:00+00:00</time>
        <ele>2842.0</ele>
      </trkpt>
      <trkpt lat="42.683975" lon="-0.016809">
        <time>1970-01-01T00:00:00+00:00</time>
        <ele>2853.0</ele>
      </trkpt>
      <trkpt lat="42.68409" lon="-0.016773">
        <time>1970-01-01T00:00:00+00:00</time>
        <ele>2872.0</ele>
      </trkpt>
      <trkpt lat="42.684221" lon="-0.016565">
        <time>1970-01-01T00:00:00+00:00</time>
        <ele>2899.0</ele>
      </trkpt>
      <trkpt lat="42.684186" lon="-0.016431">
        <time>1970-01-01T00:00:00+00:00</time>
        <ele>2897.0</ele>
      </trkpt>
      <trkpt lat="42.684228" lon="-0.015443">
        <time>1970-01-01T00:00:00+00:00</time>
        <ele>2901.0</ele>
      </trkpt>
      <trkpt lat="42.684303" lon="-0.015169">
        <time>1970-01-01T00:00:00+00:00</time>
        <ele>2907.0</ele>
      </trkpt>
      <trkpt lat="42.684246" lon="-0.015169">
        <time>1970-01-01T00:00:00+00:00</time>
        <ele>2901.0</ele>
      </trkpt>
      <trkpt lat="42.684228" lon="-0.01529">
        <time>1970-01-01T00:00:00+00:00</time>
        <ele>2901.0</ele>
      </trkpt>
      <trkpt lat="42.684317" lon="-0.015237">
        <time>1970-01-01T00:00:00+00:00</time>
        <ele>2909.0</ele>
      </trkpt>
      <trkpt lat="42.684348" lon="-0.01506">
        <time>1970-01-01T00:00:00+00:00</time>
        <ele>2911.0</ele>
      </trkpt>
      <trkpt lat="42.684208" lon="-0.014587">
        <time>1970-01-01T00:00:00+00:00</time>
        <ele>2894.0</ele>
      </trkpt>
      <trkpt lat="42.684225" lon="-0.014504">
        <time>1970-01-01T00:00:00+00:00</time>
        <ele>2895.0</ele>
      </trkpt>
      <trkpt lat="42.684279" lon="-0.01461">
        <time>1970-01-01T00:00:00+00:00</time>
        <ele>2902.0</ele>
      </trkpt>
      <trkpt lat="42.68437" lon="-0.014421">
        <time>1970-01-01T00:00:00+00:00</time>
        <ele>2912.0</ele>
      </trkpt>
      <trkpt lat="42.684352" lon="-0.014145">
        <time>1970-01-01T00:00:00+00:00</time>
        <ele>2908.0</ele>
      </trkpt>
      <trkpt lat="42.684429" lon="-0.01403">
        <time>1970-01-01T00:00:00+00:00</time>
        <ele>2918.0</ele>
      </trkpt>
      <trkpt lat="42.684494" lon="-0.013503">
        <time>1970-01-01T00:00:00+00:00</time>
        <ele>2926.0</ele>
      </trkpt>
      <trkpt lat="42.684368" lon="-0.013215">
        <time>1970-01-01T00:00:00+00:00</time>
        <ele>2913.0</ele>
      </trkpt>
      <trkpt lat="42.684324" lon="-0.012845">
        <time>1970-01-01T00:00:00+00:00</time>
        <ele>2915.0</ele>
      </trkpt>
      <trkpt lat="42.684371" lon="-0.012637">
        <time>1970-01-01T00:00:00+00:00</time>
        <ele>2924.0</ele>
      </trkpt>
      <trkpt lat="42.684321" lon="-0.012435">
        <time>1970-01-01T00:00:00+00:00</time>
        <ele>2924.0</ele>
      </trkpt>
      <trkpt lat="42.684014" lon="-0.011888">
        <time>1970-01-01T00:00:00+00:00</time>
        <ele>2915.0</ele>
      </trkpt>
      <trkpt lat="42.683902" lon="-0.011101">
        <time>1970-01-01T00:00:00+00:00</time>
        <ele>2918.0</ele>
      </trkpt>
      <trkpt lat="42.683791" lon="-0.010729">
        <time>1970-01-01T00:00:00+00:00</time>
        <ele>2913.0</ele>
      </trkpt>
      <trkpt lat="42.683853" lon="-0.010344">
        <time>1970-01-01T00:00:00+00:00</time>
        <ele>2914.0</ele>
      </trkpt>
      <trkpt lat="42.683924" lon="-0.010115">
        <time>1970-01-01T00:00:00+00:00</time>
        <ele>2916.0</ele>
      </trkpt>
      <trkpt lat="42.684081" lon="-0.009873">
        <time>1970-01-01T00:00:00+00:00</time>
        <ele>2920.0</ele>
      </trkpt>
      <trkpt lat="42.684077" lon="-0.009728">
        <time>1970-01-01T00:00:00+00:00</time>
        <ele>2920.0</ele>
      </trkpt>
      <trkpt lat="42.684301" lon="-0.00943">
        <time>1970-01-01T00:00:00+00:00</time>
        <ele>2927.0</ele>
      </trkpt>
      <trkpt lat="42.68451" lon="-0.009374">
        <time>1970-01-01T00:00:00+00:00</time>
        <ele>2930.0</ele>
      </trkpt>
      <trkpt lat="42.684631" lon="-0.00919">
        <time>1970-01-01T00:00:00+00:00</time>
        <ele>2931.0</ele>
      </trkpt>
      <trkpt lat="42.684663" lon="-0.008005">
        <time>1970-01-01T00:00:00+00:00</time>
        <ele>2925.0</ele>
      </trkpt>
      <trkpt lat="42.684616" lon="-0.007308">
        <time>1970-01-01T00:00:00+00:00</time>
        <ele>2923.0</ele>
      </trkpt>
      <trkpt lat="42.684554" lon="-0.007077">
        <time>1970-01-01T00:00:00+00:00</time>
        <ele>2920.0</ele>
      </trkpt>
      <trkpt lat="42.684559" lon="-0.006298">
        <time>1970-01-01T00:00:00+00:00</time>
        <ele>2919.0</ele>
      </trkpt>
      <trkpt lat="42.684464" lon="-0.006017">
        <time>1970-01-01T00:00:00+00:00</time>
        <ele>2914.0</ele>
      </trkpt>
      <trkpt lat="42.684379" lon="-0.00532">
        <time>1970-01-01T00:00:00+00:00</time>
        <ele>2915.0</ele>
      </trkpt>
      <trkpt lat="42.684471" lon="-0.00447">
        <time>1970-01-01T00:00:00+00:00</time>
        <ele>2920.0</ele>
      </trkpt>
      <trkpt lat="42.68437" lon="-0.004344">
        <time>1970-01-01T00:00:00+00:00</time>
        <ele>2915.0</ele>
      </trkpt>
      <trkpt lat="42.684351" lon="-0.003828">
        <time>1970-01-01T00:00:00+00:00</time>
        <ele>2909.0</ele>
      </trkpt>
      <trkpt lat="42.684162" lon="-0.003605">
        <time>1970-01-01T00:00:00+00:00</time>
        <ele>2904.0</ele>
      </trkpt>
      <trkpt lat="42.684006" lon="-0.003099">
        <time>1970-01-01T00:00:00+00:00</time>
        <ele>2900.0</ele>
      </trkpt>
      <trkpt lat="42.684043" lon="-0.0026">
        <time>1970-01-01T00:00:00+00:00</time>
        <ele>2900.0</ele>
      </trkpt>
      <trkpt lat="42.683961" lon="-0.002336">
        <time>1970-01-01T00:00:00+00:00</time>
        <ele>2900.0</ele>
      </trkpt>
      <trkpt lat="42.683986" lon="-0.002096">
        <time>1970-01-01T00:00:00+00:00</time>
        <ele>2901.0</ele>
      </trkpt>
      <trkpt lat="42.683832" lon="-0.001656">
        <time>1970-01-01T00:00:00+00:00</time>
        <ele>2904.0</ele>
      </trkpt>
      <trkpt lat="42.683844" lon="-0.001412">
        <time>1970-01-01T00:00:00+00:00</time>
        <ele>2907.0</ele>
      </trkpt>
      <trkpt lat="42.683727" lon="-0.001349">
        <time>1970-01-01T00:00:00+00:00</time>
        <ele>2908.0</ele>
      </trkpt>
      <trkpt lat="42.683851" lon="-0.000607">
        <time>1970-01-01T00:00:00+00:00</time>
        <ele>2914.0</ele>
      </trkpt>
      <trkpt lat="42.683602" lon="-0.000231">
        <time>1970-01-01T00:00:00+00:00</time>
        <ele>2915.0</ele>
      </trkpt>
      <trkpt lat="42.683689" lon="0.000204">
        <time>1970-01-01T00:00:00+00:00</time>
        <ele>2915.0</ele>
      </trkpt>
      <trkpt lat="42.683627" lon="0.000311">
        <time>1970-01-01T00:00:00+00:00</time>
        <ele>2914.0</ele>
      </trkpt>
      <trkpt lat="42.683652" lon="0.000737">
        <time>1970-01-01T00:00:00+00:00</time>
        <ele>2913.0</ele>
      </trkpt>
      <trkpt lat="42.683571" lon="0.001459">
        <time>1970-01-01T00:00:00+00:00</time>
        <ele>2911.0</ele>
      </trkpt>
      <trkpt lat="42.683739" lon="0.001904">
        <time>1970-01-01T00:00:00+00:00</time>
        <ele>2919.0</ele>
      </trkpt>
      <trkpt lat="42.683666" lon="0.002112">
        <time>1970-01-01T00:00:00+00:00</time>
        <ele>2918.0</ele>
      </trkpt>
      <trkpt lat="42.683654" lon="0.002415">
        <time>1970-01-01T00:00:00+00:00</time>
        <ele>2922.0</ele>
      </trkpt>
      <trkpt lat="42.683733" lon="0.002502">
        <time>1970-01-01T00:00:00+00:00</time>
        <ele>2926.0</ele>
      </trkpt>
      <trkpt lat="42.683661" lon="0.003299">
        <time>1970-01-01T00:00:00+00:00</time>
        <ele>2928.0</ele>
      </trkpt>
      <trkpt lat="42.683578" lon="0.003484">
        <time>1970-01-01T00:00:00+00:00</time>
        <ele>2928.0</ele>
      </trkpt>
      <trkpt lat="42.683585" lon="0.003654">
        <time>1970-01-01T00:00:00+00:00</time>
        <ele>2929.0</ele>
      </trkpt>
      <trkpt lat="42.683437" lon="0.00424">
        <time>1970-01-01T00:00:00+00:00</time>
        <ele>2927.0</ele>
      </trkpt>
      <trkpt lat="42.683541" lon="0.005207">
        <time>1970-01-01T00:00:00+00:00</time>
        <ele>2930.0</ele>
      </trkpt>
      <trkpt lat="42.683493" lon="0.005664">
        <time>1970-01-01T00:00:00+00:00</time>
        <ele>2926.0</ele>
      </trkpt>
      <trkpt lat="42.683391" lon="0.00596">
        <time>1970-01-01T00:00:00+00:00</time>
        <ele>2922.0</ele>
      </trkpt>
      <trkpt lat="42.683471" lon="0.006647">
        <time>1970-01-01T00:00:00+00:00</time>
        <ele>2921.0</ele>
      </trkpt>
      <trkpt lat="42.68324" lon="0.007223">
        <time>1970-01-01T00:00:00+00:00</time>
        <ele>2899.0</ele>
      </trkpt>
      <trkpt lat="42.683268" lon="0.007507">
        <time>1970-01-01T00:00:00+00:00</time>
        <ele>2897.0</ele>
      </trkpt>
      <trkpt lat="42.683173" lon="0.008019">
        <time>1970-01-01T00:00:00+00:00</time>
        <ele>2890.0</ele>
      </trkpt>
      <trkpt lat="42.683187" lon="0.008248">
        <time>1970-01-01T00:00:00+00:00</time>
        <ele>2890.0</ele>
      </trkpt>
      <trkpt lat="42.6833" lon="0.008591">
        <time>1970-01-01T00:00:00+00:00</time>
        <ele>2893.0</ele>
      </trkpt>
      <trkpt lat="42.683177" lon="0.009676">
        <time>1970-01-01T00:00:00+00:00</time>
        <ele>2886.0</ele>
      </trkpt>
      <trkpt lat="42.683258" lon="0.009824">
        <time>1970-01-01T00:00:00+00:00</time>
        <ele>2886.0</ele>
      </trkpt>
      <trkpt lat="42.683204" lon="0.010181">
        <time>1970-01-01T00:00:00+00:00</time>
        <ele>2883.0</ele>
      </trkpt>
      <trkpt lat="42.683039" lon="0.010686">
        <time>1970-01-01T00:00:00+00:00</time>
        <ele>2880.0</ele>
      </trkpt>
      <trkpt lat="42.682985" lon="0.01121">
        <time>1970-01-01T00:00:00+00:00</time>
        <ele>2878.0</ele>
      </trkpt>
      <trkpt lat="42.682819" lon="0.011515">
        <time>1970-01-01T00:00:00+00:00</time>
        <ele>2878.0</ele>
      </trkpt>
      <trkpt lat="42.68282" lon="0.011876">
        <time>1970-01-01T00:00:00+00:00</time>
        <ele>2878.0</ele>
      </trkpt>
      <trkpt lat="42.682932" lon="0.012074">
        <time>1970-01-01T00:00:00+00:00</time>
        <ele>2879.0</ele>
      </trkpt>
      <trkpt lat="42.682978" lon="0.012638">
        <time>1970-01-01T00:00:00+00:00</time>
        <ele>2893.0</ele>
      </trkpt>
      <trkpt lat="42.683133" lon="0.012835">
        <time>1970-01-01T00:00:00+00:00</time>
        <ele>2909.0</ele>
      </trkpt>
      <trkpt lat="42.683218" lon="0.012742">
        <time>1970-01-01T00:00:00+00:00</time>
        <ele>2908.0</ele>
      </trkpt>
      <trkpt lat="42.683422" lon="0.012691">
        <time>1970-01-01T00:00:00+00:00</time>
        <ele>2912.0</ele>
      </trkpt>
      <trkpt lat="42.683482" lon="0.012807">
        <time>1970-01-01T00:00:00+00:00</time>
        <ele>2918.0</ele>
      </trkpt>
      <trkpt lat="42.683667" lon="0.012868">
        <time>1970-01-01T00:00:00+00:00</time>
        <ele>2922.0</ele>
      </trkpt>
      <trkpt lat="42.683682" lon="0.013104">
        <time>1970-01-01T00:00:00+00:00</time>
        <ele>2928.0</ele>
      </trkpt>
      <trkpt lat="42.683856" lon="0.012627">
        <time>1970-01-01T00:00:00+00:00</time>
        <ele>2917.0</ele>
      </trkpt>
      <trkpt lat="42.684187" lon="0.012641">
        <time>1970-01-01T00:00:00+00:00</time>
        <ele>2919.0</ele>
      </trkpt>
      <trkpt lat="42.684516" lon="0.01211">
        <time>1970-01-01T00:00:00+00:00</time>
        <ele>2917.0</ele>
      </trkpt>
      <trkpt lat="42.684799" lon="0.011985">
        <time>1970-01-01T00:00:00+00:00</time>
        <ele>2920.0</ele>
      </trkpt>
      <trkpt lat="42.684991" lon="0.012043">
        <time>1970-01-01T00:00:00+00:00</time>
        <ele>2926.0</ele>
      </trkpt>
      <trkpt lat="42.685027" lon="0.012302">
        <time>1970-01-01T00:00:00+00:00</time>
        <ele>2933.0</ele>
      </trkpt>
      <trkpt lat="42.685196" lon="0.012622">
        <time>1970-01-01T00:00:00+00:00</time>
        <ele>2945.0</ele>
      </trkpt>
      <trkpt lat="42.685118" lon="0.013038">
        <time>1970-01-01T00:00:00+00:00</time>
        <ele>2952.0</ele>
      </trkpt>
      <trkpt lat="42.685314" lon="0.013074">
        <time>1970-01-01T00:00:00+00:00</time>
        <ele>2950.0</ele>
      </trkpt>
      <trkpt lat="42.685516" lon="0.012736">
        <time>1970-01-01T00:00:00+00:00</time>
        <ele>2945.0</ele>
      </trkpt>
      <trkpt lat="42.685557" lon="0.012557">
        <time>1970-01-01T00:00:00+00:00</time>
        <ele>2943.0</ele>
      </trkpt>
      <trkpt lat="42.685636" lon="0.012644">
        <time>1970-01-01T00:00:00+00:00</time>
        <ele>2942.0</ele>
      </trkpt>
      <trkpt lat="42.685653" lon="0.012812">
        <time>1970-01-01T00:00:00+00:00</time>
        <ele>2942.0</ele>
      </trkpt>
      <trkpt lat="42.685741" lon="0.012816">
        <time>1970-01-01T00:00:00+00:00</time>
        <ele>2940.0</ele>
      </trkpt>
      <trkpt lat="42.685794" lon="0.012923">
        <time>1970-01-01T00:00:00+00:00</time>
        <ele>2938.0</ele>
      </trkpt>
      <trkpt lat="42.685905" lon="0.012915">
        <time>1970-01-01T00:00:00+00:00</time>
        <ele>2935.0</ele>
      </trkpt>
      <trkpt lat="42.685927" lon="0.013018">
        <time>1970-01-01T00:00:00+00:00</time>
        <ele>2935.0</ele>
      </trkpt>
      <trkpt lat="42.686061" lon="0.013112">
        <time>1970-01-01T00:00:00+00:00</time>
        <ele>2931.0</ele>
      </trkpt>
      <trkpt lat="42.686094" lon="0.013065">
        <time>1970-01-01T00:00:00+00:00</time>
        <ele>2931.0</ele>
      </trkpt>
      <trkpt lat="42.686597" lon="0.014135">
        <time>1970-01-01T00:00:00+00:00</time>
        <ele>2958.0</ele>
      </trkpt>
      <trkpt lat="42.686944" lon="0.014291">
        <time>1970-01-01T00:00:00+00:00</time>
        <ele>2978.0</ele>
      </trkpt>
      <trkpt lat="42.687154" lon="0.014479">
        <time>1970-01-01T00:00:00+00:00</time>
        <ele>2989.0</ele>
      </trkpt>
      <trkpt lat="42.687279" lon="0.014348">
        <time>1970-01-01T00:00:00+00:00</time>
        <ele>2982.0</ele>
      </trkpt>
      <trkpt lat="42.687238" lon="0.014281">
        <time>1970-01-01T00:00:00+00:00</time>
        <ele>2980.0</ele>
      </trkpt>
      <trkpt lat="42.68729" lon="0.014212">
        <time>1970-01-01T00:00:00+00:00</time>
        <ele>2978.0</ele>
      </trkpt>
      <trkpt lat="42.687516" lon="0.014276">
        <time>1970-01-01T00:00:00+00:00</time>
        <ele>2977.0</ele>
      </trkpt>
      <trkpt lat="42.687704" lon="0.014132">
        <time>1970-01-01T00:00:00+00:00</time>
        <ele>2979.0</ele>
      </trkpt>
      <trkpt lat="42.687746" lon="0.013854">
        <time>1970-01-01T00:00:00+00:00</time>
        <ele>2991.0</ele>
      </trkpt>
      <trkpt lat="42.687711" lon="0.013719">
        <time>1970-01-01T00:00:00+00:00</time>
        <ele>2996.0</ele>
      </trkpt>
      <trkpt lat="42.68783" lon="0.013387">
        <time>1970-01-01T00:00:00+00:00</time>
        <ele>3014.0</ele>
      </trkpt>
      <trkpt lat="42.687798" lon="0.013244">
        <time>1970-01-01T00:00:00+00:00</time>
        <ele>3017.0</ele>
      </trkpt>
      <trkpt lat="42.687829" lon="0.013176">
        <time>1970-01-01T00:00:00+00:00</time>
        <ele>3021.0</ele>
      </trkpt>
      <trkpt lat="42.687906" lon="0.013215">
        <time>1970-01-01T00:00:00+00:00</time>
        <ele>3023.0</ele>
      </trkpt>
      <trkpt lat="42.687885" lon="0.013106">
        <time>1970-01-01T00:00:00+00:00</time>
        <ele>3025.0</ele>
      </trkpt>
      <trkpt lat="42.68807" lon="0.012991">
        <time>1970-01-01T00:00:00+00:00</time>
        <ele>3035.0</ele>
      </trkpt>
      <trkpt lat="42.688431" lon="0.013329">
        <time>1970-01-01T00:00:00+00:00</time>
        <ele>3047.0</ele>
      </trkpt>
      <trkpt lat="42.688536" lon="0.01351">
        <time>1970-01-01T00:00:00+00:00</time>
        <ele>3049.0</ele>
      </trkpt>
      <trkpt lat="42.688609" lon="0.013497">
        <time>1970-01-01T00:00:00+00:00</time>
        <ele>3053.0</ele>
      </trkpt>
      <trkpt lat="42.688655" lon="0.013392">
        <time>1970-01-01T00:00:00+00:00</time>
        <ele>3058.0</ele>
      </trkpt>
      <trkpt lat="42.68878" lon="0.013401">
        <time>1970-01-01T00:00:00+00:00</time>
        <ele>3062.0</ele>
      </trkpt>
      <trkpt lat="42.688943" lon="0.013486">
        <time>1970-01-01T00:00:00+00:00</time>
        <ele>3067.0</ele>
      </trkpt>
      <trkpt lat="42.689231" lon="0.0135">
        <time>1970-01-01T00:00:00+00:00</time>
        <ele>3077.0</ele>
      </trkpt>
      <trkpt lat="42.689385" lon="0.013654">
        <time>1970-01-01T00:00:00+00:00</time>
        <ele>3081.0</ele>
      </trkpt>
      <trkpt lat="42.689497" lon="0.013547">
        <time>1970-01-01T00:00:00+00:00</time>
        <ele>3087.0</ele>
      </trkpt>
      <trkpt lat="42.689633" lon="0.013671">
        <time>1970-01-01T00:00:00+00:00</time>
        <ele>3094.0</ele>
      </trkpt>
      <trkpt lat="42.689735" lon="0.013562">
        <time>1970-01-01T00:00:00+00:00</time>
        <ele>3100.0</ele>
      </trkpt>
      <trkpt lat="42.689989" lon="0.013704">
        <time>1970-01-01T00:00:00+00:00</time>
        <ele>3114.0</ele>
      </trkpt>
      <trkpt lat="42.690143" lon="0.01359">
        <time>1970-01-01T00:00:00+00:00</time>
        <ele>3124.0</ele>
      </trkpt>
      <trkpt lat="42.690235" lon="0.013403">
        <time>1970-01-01T00:00:00+00:00</time>
        <ele>3131.0</ele>
      </trkpt>
      <trkpt lat="42.690253" lon="0.013509">
        <time>1970-01-01T00:00:00+00:00</time>
        <ele>3131.0</ele>
      </trkpt>
      <trkpt lat="42.690353" lon="0.013417">
        <time>1970-01-01T00:00:00+00:00</time>
        <ele>3139.0</ele>
      </trkpt>
      <trkpt lat="42.69039" lon="0.013561">
        <time>1970-01-01T00:00:00+00:00</time>
        <ele>3142.0</ele>
      </trkpt>
      <trkpt lat="42.69052" lon="0.013296">
        <time>1970-01-01T00:00:00+00:00</time>
        <ele>3149.0</ele>
      </trkpt>
      <trkpt lat="42.690609" lon="0.013426">
        <time>1970-01-01T00:00:00+00:00</time>
        <ele>3154.0</ele>
      </trkpt>
      <trkpt lat="42.690782" lon="0.013473">
        <time>1970-01-01T00:00:00+00:00</time>
        <ele>3161.0</ele>
      </trkpt>
      <trkpt lat="42.690897" lon="0.012891">
        <time>1970-01-01T00:00:00+00:00</time>
        <ele>3169.0</ele>
      </trkpt>
      <trkpt lat="42.69086" lon="0.01271">
        <time>1970-01-01T00:00:00+00:00</time>
        <ele>3169.0</ele>
      </trkpt>
      <trkpt lat="42.69106" lon="0.01307">
        <time>1970-01-01T00:00:00+00:00</time>
        <ele>3175.0</ele>
      </trkpt>
      <trkpt lat="42.691334" lon="0.012606">
        <time>1970-01-01T00:00:00+00:00</time>
        <ele>3196.0</ele>
      </trkpt>
      <trkpt lat="42.691347" lon="0.012662">
        <time>1970-01-01T00:00:00+00:00</time>
        <ele>3196.0</ele>
      </trkpt>
      <trkpt lat="42.691483" lon="0.012569">
        <time>1970-01-01T00:00:00+00:00</time>
        <ele>3205.0</ele>
      </trkpt>
      <trkpt lat="42.69156" lon="0.012598">
        <time>1970-01-01T00:00:00+00:00</time>
        <ele>3209.0</ele>
      </trkpt>
      <trkpt lat="42.691705" lon="0.01244">
        <time>1970-01-01T00:00:00+00:00</time>
        <ele>3217.0</ele>
      </trkpt>
      <trkpt lat="42.691774" lon="0.012581">
        <time>1970-01-01T00:00:00+00:00</time>
        <ele>3219.0</ele>
      </trkpt>
      <trkpt lat="42.691873" lon="0.012639">
        <time>1970-01-01T00:00:00+00:00</time>
        <ele>3222.0</ele>
      </trkpt>
      <trkpt lat="42.691939" lon="0.012583">
        <time>1970-01-01T00:00:00+00:00</time>
        <ele>3224.0</ele>
      </trkpt>
      <trkpt lat="42.692127" lon="0.012706">
        <time>1970-01-01T00:00:00+00:00</time>
        <ele>3230.0</ele>
      </trkpt>
      <trkpt lat="42.692432" lon="0.01241">
        <time>1970-01-01T00:00:00+00:00</time>
        <ele>3239.0</ele>
      </trkpt>
      <trkpt lat="42.692751" lon="0.011812">
        <time>1970-01-01T00:00:00+00:00</time>
        <ele>3246.0</ele>
      </trkpt>
      <trkpt lat="42.692787" lon="0.011642">
        <time>1970-01-01T00:00:00+00:00</time>
        <ele>3245.0</ele>
      </trkpt>
      <trkpt lat="42.692694" lon="0.011514">
        <time>1970-01-01T00:00:00+00:00</time>
        <ele>3241.0</ele>
      </trkpt>
      <trkpt lat="42.692515" lon="0.011611">
        <time>1970-01-01T00:00:00+00:00</time>
        <ele>3244.0</ele>
      </trkpt>
      <trkpt lat="42.692221" lon="0.011522">
        <time>1970-01-01T00:00:00+00:00</time>
        <ele>3237.0</ele>
      </trkpt>
      <trkpt lat="42.69211" lon="0.01159">
        <time>1970-01-01T00:00:00+00:00</time>
        <ele>3235.0</ele>
      </trkpt>
      <trkpt lat="42.69178" lon="0.011373">
        <time>1970-01-01T00:00:00+00:00</time>
        <ele>3227.0</ele>
      </trkpt>
      <trkpt lat="42.69151" lon="0.011468">
        <time>1970-01-01T00:00:00+00:00</time>
        <ele>3219.0</ele>
      </trkpt>
      <trkpt lat="42.691387" lon="0.011372">
        <time>1970-01-01T00:00:00+00:00</time>
        <ele>3214.0</ele>
      </trkpt>
      <trkpt lat="42.69127" lon="0.011409">
        <time>1970-01-01T00:00:00+00:00</time>
        <ele>3207.0</ele>
      </trkpt>
      <trkpt lat="42.69114" lon="0.011334">
        <time>1970-01-01T00:00:00+00:00</time>
        <ele>3200.0</ele>
      </trkpt>
      <trkpt lat="42.69108" lon="0.011405">
        <time>1970-01-01T00:00:00+00:00</time>
        <ele>3196.0</ele>
      </trkpt>
      <trkpt lat="42.690749" lon="0.011211">
        <time>1970-01-01T00:00:00+00:00</time>
        <ele>3173.0</ele>
      </trkpt>
      <trkpt lat="42.690452" lon="0.010509">
        <time>1970-01-01T00:00:00+00:00</time>
        <ele>3153.0</ele>
      </trkpt>
      <trkpt lat="42.690373" lon="0.010395">
        <time>1970-01-01T00:00:00+00:00</time>
        <ele>3149.0</ele>
      </trkpt>
      <trkpt lat="42.6903" lon="0.010435">
        <time>1970-01-01T00:00:00+00:00</time>
        <ele>3146.0</ele>
      </trkpt>
      <trkpt lat="42.690237" lon="0.010219">
        <time>1970-01-01T00:00:00+00:00</time>
        <ele>3143.0</ele>
      </trkpt>
      <trkpt lat="42.690207" lon="0.009562">
        <time>1970-01-01T00:00:00+00:00</time>
        <ele>3134.0</ele>
      </trkpt>
      <trkpt lat="42.690151" lon="0.009235">
        <time>1970-01-01T00:00:00+00:00</time>
        <ele>3132.0</ele>
      </trkpt>
      <trkpt lat="42.690069" lon="0.009076">
        <time>1970-01-01T00:00:00+00:00</time>
        <ele>3131.0</ele>
      </trkpt>
      <trkpt lat="42.690125" lon="0.008786">
        <time>1970-01-01T00:00:00+00:00</time>
        <ele>3132.0</ele>
      </trkpt>
      <trkpt lat="42.690098" lon="0.008448">
        <time>1970-01-01T00:00:00+00:00</time>
        <ele>3137.0</ele>
      </trkpt>
      <trkpt lat="42.690043" lon="0.008362">
        <time>1970-01-01T00:00:00+00:00</time>
        <ele>3139.0</ele>
      </trkpt>
      <trkpt lat="42.690016" lon="0.007946">
        <time>1970-01-01T00:00:00+00:00</time>
        <ele>3144.0</ele>
      </trkpt>
      <trkpt lat="42.689909" lon="0.007684">
        <time>1970-01-01T00:00:00+00:00</time>
        <ele>3137.0</ele>
      </trkpt>
      <trkpt lat="42.689931" lon="0.007481">
        <time>1970-01-01T00:00:00+00:00</time>
        <ele>3136.0</ele>
      </trkpt>
      <trkpt lat="42.690078" lon="0.00817">
        <time>1970-01-01T00:00:00+00:00</time>
        <ele>3141.0</ele>
      </trkpt>
      <trkpt lat="42.690005" lon="0.00888">
        <time>1970-01-01T00:00:00+00:00</time>
        <ele>3131.0</ele>
      </trkpt>
      <trkpt lat="42.690041" lon="0.009007">
        <time>1970-01-01T00:00:00+00:00</time>
        <ele>3131.0</ele>
      </trkpt>
      <trkpt lat="42.689932" lon="0.009087">
        <time>1970-01-01T00:00:00+00:00</time>
        <ele>3129.0</ele>
      </trkpt>
      <trkpt lat="42.689639" lon="0.008538">
        <time>1970-01-01T00:00:00+00:00</time>
        <ele>3104.0</ele>
      </trkpt>
      <trkpt lat="42.689747" lon="0.007258">
        <time>1970-01-01T00:00:00+00:00</time>
        <ele>3119.0</ele>
      </trkpt>
      <trkpt lat="42.689568" lon="0.007148">
        <time>1970-01-01T00:00:00+00:00</time>
        <ele>3105.0</ele>
      </trkpt>
      <trkpt lat="42.689549" lon="0.007294">
        <time>1970-01-01T00:00:00+00:00</time>
        <ele>3102.0</ele>
      </trkpt>
      <trkpt lat="42.68946" lon="0.007316">
        <time>1970-01-01T00:00:00+00:00</time>
        <ele>3093.0</ele>
      </trkpt>
      <trkpt lat="42.688911" lon="0.006388">
        <time>1970-01-01T00:00:00+00:00</time>
        <ele>3079.0</ele>
      </trkpt>
      <trkpt lat="42.688846" lon="0.006069">
        <time>1970-01-01T00:00:00+00:00</time>
        <ele>3079.0</ele>
      </trkpt>
      <trkpt lat="42.68885" lon="0.005702">
        <time>1970-01-01T00:00:00+00:00</time>
        <ele>3084.0</ele>
      </trkpt>
      <trkpt lat="42.688868" lon="0.005492">
        <time>1970-01-01T00:00:00+00:00</time>
        <ele>3085.0</ele>
      </trkpt>
      <trkpt lat="42.688932" lon="0.005429">
        <time>1970-01-01T00:00:00+00:00</time>
        <ele>3085.0</ele>
      </trkpt>
      <trkpt lat="42.688877" lon="0.005413">
        <time>1970-01-01T00:00:00+00:00</time>
        <ele>3085.0</ele>
      </trkpt>
      <trkpt lat="42.688898" lon="0.005307">
        <time>1970-01-01T00:00:00+00:00</time>
        <ele>3086.0</ele>
      </trkpt>
      <trkpt lat="42.688783" lon="0.004999">
        <time>1970-01-01T00:00:00+00:00</time>
        <ele>3086.0</ele>
      </trkpt>
      <trkpt lat="42.688856" lon="0.004712">
        <time>1970-01-01T00:00:00+00:00</time>
        <ele>3095.0</ele>
      </trkpt>
      <trkpt lat="42.688709" lon="0.004674">
        <time>1970-01-01T00:00:00+00:00</time>
        <ele>3090.0</ele>
      </trkpt>
      <trkpt lat="42.688682" lon="0.004771">
        <time>1970-01-01T00:00:00+00:00</time>
        <ele>3087.0</ele>
      </trkpt>
      <trkpt lat="42.688596" lon="0.00473">
        <time>1970-01-01T00:00:00+00:00</time>
        <ele>3083.0</ele>
      </trkpt>
      <trkpt lat="42.68837" lon="0.00494">
        <time>1970-01-01T00:00:00+00:00</time>
        <ele>3065.0</ele>
      </trkpt>
      <trkpt lat="42.688188" lon="0.004936">
        <time>1970-01-01T00:00:00+00:00</time>
        <ele>3056.0</ele>
      </trkpt>
      <trkpt lat="42.688112" lon="0.004856">
        <time>1970-01-01T00:00:00+00:00</time>
        <ele>3053.0</ele>
      </trkpt>
      <trkpt lat="42.687809" lon="0.005001">
        <time>1970-01-01T00:00:00+00:00</time>
        <ele>3037.0</ele>
      </trkpt>
      <trkpt lat="42.687374" lon="0.004951">
        <time>1970-01-01T00:00:00+00:00</time>
        <ele>3034.0</ele>
      </trkpt>
      <trkpt lat="42.687253" lon="0.005056">
        <time>1970-01-01T00:00:00+00:00</time>
        <ele>3036.0</ele>
      </trkpt>
      <trkpt lat="42.68686" lon="0.005036">
        <time>1970-01-01T00:00:00+00:00</time>
        <ele>3037.0</ele>
      </trkpt>
      <trkpt lat="42.686994" lon="0.005145">
        <time>1970-01-01T00:00:00+00:00</time>
        <ele>3039.0</ele>
      </trkpt>
      <trkpt lat="42.687002" lon="0.004722">
        <time>1970-01-01T00:00:00+00:00</time>
        <ele>3046.0</ele>
      </trkpt>
      <trkpt lat="42.687133" lon="0.004177">
        <time>1970-01-01T00:00:00+00:00</time>
        <ele>3054.0</ele>
      </trkpt>
      <trkpt lat="42.687146" lon="0.003831">
        <time>1970-01-01T00:00:00+00:00</time>
        <ele>3062.0</ele>
      </trkpt>
      <trkpt lat="42.68714" lon="0.003896">
        <time>1970-01-01T00:00:00+00:00</time>
        <ele>3061.0</ele>
      </trkpt>
      <trkpt lat="42.687075" lon="0.003886">
        <time>1970-01-01T00:00:00+00:00</time>
        <ele>3063.0</ele>
      </trkpt>
      <trkpt lat="42.686921" lon="0.003808">
        <time>1970-01-01T00:00:00+00:00</time>
        <ele>3064.0</ele>
      </trkpt>
      <trkpt lat="42.686872" lon="0.003701">
        <time>1970-01-01T00:00:00+00:00</time>
        <ele>3066.0</ele>
      </trkpt>
      <trkpt lat="42.686817" lon="0.00305">
        <time>1970-01-01T00:00:00+00:00</time>
        <ele>3079.0</ele>
      </trkpt>
      <trkpt lat="42.686678" lon="0.002847">
        <time>1970-01-01T00:00:00+00:00</time>
        <ele>3082.0</ele>
      </trkpt>
      <trkpt lat="42.686679" lon="0.002724">
        <time>1970-01-01T00:00:00+00:00</time>
        <ele>3085.0</ele>
      </trkpt>
      <trkpt lat="42.686607" lon="0.002614">
        <time>1970-01-01T00:00:00+00:00</time>
        <ele>3084.0</ele>
      </trkpt>
      <trkpt lat="42.686734" lon="0.002387">
        <time>1970-01-01T00:00:00+00:00</time>
        <ele>3087.0</ele>
      </trkpt>
      <trkpt lat="42.686542" lon="0.002701">
        <time>1970-01-01T00:00:00+00:00</time>
        <ele>3081.0</ele>
      </trkpt>
      <trkpt lat="42.686432" lon="0.0028">
        <time>1970-01-01T00:00:00+00:00</time>
        <ele>3077.0</ele>
      </trkpt>
      <trkpt lat="42.686374" lon="0.002754">
        <time>1970-01-01T00:00:00+00:00</time>
        <ele>3075.0</ele>
      </trkpt>
      <trkpt lat="42.685883" lon="0.001995">
        <time>1970-01-01T00:00:00+00:00</time>
        <ele>3064.0</ele>
      </trkpt>
      <trkpt lat="42.685455" lon="0.001081">
        <time>1970-01-01T00:00:00+00:00</time>
        <ele>3062.0</ele>
      </trkpt>
      <trkpt lat="42.685362" lon="0.000782">
        <time>1970-01-01T00:00:00+00:00</time>
        <ele>3063.0</ele>
      </trkpt>
      <trkpt lat="42.685397" lon="0.000538">
        <time>1970-01-01T00:00:00+00:00</time>
        <ele>3066.0</ele>
      </trkpt>
      <trkpt lat="42.685341" lon="0.000303">
        <time>1970-01-01T00:00:00+00:00</time>
        <ele>3068.0</ele>
      </trkpt>
      <trkpt lat="42.685421" lon="0.000867">
        <time>1970-01-01T00:00:00+00:00</time>
        <ele>3064.0</ele>
      </trkpt>
      <trkpt lat="42.685494" lon="0.001091">
        <time>1970-01-01T00:00:00+00:00</time>
        <ele>3064.0</ele>
      </trkpt>
      <trkpt lat="42.685569" lon="0.001157">
        <time>1970-01-01T00:00:00+00:00</time>
        <ele>3064.0</ele>
      </trkpt>
      <trkpt lat="42.685481" lon="0.001437">
        <time>1970-01-01T00:00:00+00:00</time>
        <ele>3058.0</ele>
      </trkpt>
      <trkpt lat="42.685536" lon="0.001559">
        <time>1970-01-01T00:00:00+00:00</time>
        <ele>3058.0</ele>
      </trkpt>
      <trkpt lat="42.685581" lon="0.002261">
        <time>1970-01-01T00:00:00+00:00</time>
        <ele>3048.0</ele>
      </trkpt>
      <trkpt lat="42.685568" lon="0.003289">
        <time>1970-01-01T00:00:00+00:00</time>
        <ele>3042.0</ele>
      </trkpt>
      <trkpt lat="42.685469" lon="0.003681">
        <time>1970-01-01T00:00:00+00:00</time>
        <ele>3037.0</ele>
      </trkpt>
      <trkpt lat="42.685497" lon="0.00385">
        <time>1970-01-01T00:00:00+00:00</time>
        <ele>3039.0</ele>
      </trkpt>
      <trkpt lat="42.685363" lon="0.004202">
        <time>1970-01-01T00:00:00+00:00</time>
        <ele>3031.0</ele>
      </trkpt>
      <trkpt lat="42.685399" lon="0.004342">
        <time>1970-01-01T00:00:00+00:00</time>
        <ele>3033.0</ele>
      </trkpt>
      <trkpt lat="42.685288" lon="0.004685">
        <time>1970-01-01T00:00:00+00:00</time>
        <ele>3030.0</ele>
      </trkpt>
      <trkpt lat="42.685415" lon="0.005446">
        <time>1970-01-01T00:00:00+00:00</time>
        <ele>3025.0</ele>
      </trkpt>
      <trkpt lat="42.685306" lon="0.005597">
        <time>1970-01-01T00:00:00+00:00</time>
        <ele>3022.0</ele>
      </trkpt>
      <trkpt lat="42.685228" lon="0.006014">
        <time>1970-01-01T00:00:00+00:00</time>
        <ele>3011.0</ele>
      </trkpt>
      <trkpt lat="42.684969" lon="0.0064">
        <time>1970-01-01T00:00:00+00:00</time>
        <ele>3005.0</ele>
      </trkpt>
      <trkpt lat="42.684757" lon="0.007216">
        <time>1970-01-01T00:00:00+00:00</time>
        <ele>2986.0</ele>
      </trkpt>
      <trkpt lat="42.68481" lon="0.007339">
        <time>1970-01-01T00:00:00+00:00</time>
        <ele>2983.0</ele>
      </trkpt>
      <trkpt lat="42.684716" lon="0.007441">
        <time>1970-01-01T00:00:00+00:00</time>
        <ele>2981.0</ele>
      </trkpt>
      <trkpt lat="42.684658" lon="0.007796">
        <time>1970-01-01T00:00:00+00:00</time>
        <ele>2975.0</ele>
      </trkpt>
      <trkpt lat="42.684572" lon="0.007949">
        <time>1970-01-01T00:00:00+00:00</time>
        <ele>2971.0</ele>
      </trkpt>
      <trkpt lat="42.684627" lon="0.0082">
        <time>1970-01-01T00:00:00+00:00</time>
        <ele>2967.0</ele>
      </trkpt>
      <trkpt lat="42.68468" lon="0.008228">
        <time>1970-01-01T00:00:00+00:00</time>
        <ele>2968.0</ele>
      </trkpt>
      <trkpt lat="42.68466" lon="0.009135">
        <time>1970-01-01T00:00:00+00:00</time>
        <ele>2951.0</ele>
      </trkpt>
      <trkpt lat="42.684584" lon="0.009415">
        <time>1970-01-01T00:00:00+00:00</time>
        <ele>2939.0</ele>
      </trkpt>
      <trkpt lat="42.684669" lon="0.009543">
        <time>1970-01-01T00:00:00+00:00</time>
        <ele>2940.0</ele>
      </trkpt>
      <trkpt lat="42.684661" lon="0.010149">
        <time>1970-01-01T00:00:00+00:00</time>
        <ele>2932.0</ele>
      </trkpt>
      <trkpt lat="42.68457" lon="0.010671">
        <time>1970-01-01T00:00:00+00:00</time>
        <ele>2924.0</ele>
      </trkpt>
      <trkpt lat="42.6846" lon="0.010849">
        <time>1970-01-01T00:00:00+00:00</time>
        <ele>2923.0</ele>
      </trkpt>
      <trkpt lat="42.684689" lon="0.010982">
        <time>1970-01-01T00:00:00+00:00</time>
        <ele>2922.0</ele>
      </trkpt>
      <trkpt lat="42.684572" lon="0.011495">
        <time>1970-01-01T00:00:00+00:00</time>
        <ele>2917.0</ele>
      </trkpt>
      <trkpt lat="42.68427" lon="0.011776">
        <time>1970-01-01T00:00:00+00:00</time>
        <ele>2916.0</ele>
      </trkpt>
      <trkpt lat="42.684108" lon="0.012448">
        <time>1970-01-01T00:00:00+00:00</time>
        <ele>2916.0</ele>
      </trkpt>
      <trkpt lat="42.684133" lon="0.012583">
        <time>1970-01-01T00:00:00+00:00</time>
        <ele>2918.0</ele>
      </trkpt>
      <trkpt lat="42.684001" lon="0.012709">
        <time>1970-01-01T00:00:00+00:00</time>
        <ele>2920.0</ele>
      </trkpt>
      <trkpt lat="42.683977" lon="0.012898">
        <time>1970-01-01T00:00:00+00:00</time>
        <ele>2924.0</ele>
      </trkpt>
      <trkpt lat="42.683877" lon="0.012956">
        <time>1970-01-01T00:00:00+00:00</time>
        <ele>2925.0</ele>
      </trkpt>
      <trkpt lat="42.683881" lon="0.012886">
        <time>1970-01-01T00:00:00+00:00</time>
        <ele>2924.0</ele>
      </trkpt>
      <trkpt lat="42.683755" lon="0.012853">
        <time>1970-01-01T00:00:00+00:00</time>
        <ele>2922.0</ele>
      </trkpt>
      <trkpt lat="42.683628" lon="0.012984">
        <time>1970-01-01T00:00:00+00:00</time>
        <ele>2926.0</ele>
      </trkpt>
      <trkpt lat="42.68364" lon="0.012789">
        <time>1970-01-01T00:00:00+00:00</time>
        <ele>2920.0</ele>
      </trkpt>
      <trkpt lat="42.683326" lon="0.012422">
        <time>1970-01-01T00:00:00+00:00</time>
        <ele>2897.0</ele>
      </trkpt>
      <trkpt lat="42.683217" lon="0.011981">
        <time>1970-01-01T00:00:00+00:00</time>
        <ele>2884.0</ele>
      </trkpt>
      <trkpt lat="42.683274" lon="0.011846">
        <time>1970-01-01T00:00:00+00:00</time>
        <ele>2884.0</ele>
      </trkpt>
      <trkpt lat="42.683285" lon="0.011274">
        <time>1970-01-01T00:00:00+00:00</time>
        <ele>2881.0</ele>
      </trkpt>
      <trkpt lat="42.683544" lon="0.01073">
        <time>1970-01-01T00:00:00+00:00</time>
        <ele>2886.0</ele>
      </trkpt>
      <trkpt lat="42.68346" lon="0.010094">
        <time>1970-01-01T00:00:00+00:00</time>
        <ele>2887.0</ele>
      </trkpt>
      <trkpt lat="42.683648" lon="0.009445">
        <time>1970-01-01T00:00:00+00:00</time>
        <ele>2895.0</ele>
      </trkpt>
      <trkpt lat="42.683614" lon="0.009209">
        <time>1970-01-01T00:00:00+00:00</time>
        <ele>2896.0</ele>
      </trkpt>
      <trkpt lat="42.683462" lon="0.008953">
        <time>1970-01-01T00:00:00+00:00</time>
        <ele>2894.0</ele>
      </trkpt>
      <trkpt lat="42.683518" lon="0.008736">
        <time>1970-01-01T00:00:00+00:00</time>
        <ele>2898.0</ele>
      </trkpt>
      <trkpt lat="42.683475" lon="0.008606">
        <time>1970-01-01T00:00:00+00:00</time>
        <ele>2898.0</ele>
      </trkpt>
      <trkpt lat="42.683262" lon="0.008545">
        <time>1970-01-01T00:00:00+00:00</time>
        <ele>2892.0</ele>
      </trkpt>
      <trkpt lat="42.683363" lon="0.008295">
        <time>1970-01-01T00:00:00+00:00</time>
        <ele>2897.0</ele>
      </trkpt>
      <trkpt lat="42.68337" lon="0.008103">
        <time>1970-01-01T00:00:00+00:00</time>
        <ele>2898.0</ele>
      </trkpt>
      <trkpt lat="42.683454" lon="0.007991">
        <time>1970-01-01T00:00:00+00:00</time>
        <ele>2904.0</ele>
      </trkpt>
      <trkpt lat="42.683369" lon="0.007859">
        <time>1970-01-01T00:00:00+00:00</time>
        <ele>2901.0</ele>
      </trkpt>
      <trkpt lat="42.683414" lon="0.007816">
        <time>1970-01-01T00:00:00+00:00</time>
        <ele>2904.0</ele>
      </trkpt>
      <trkpt lat="42.683382" lon="0.007731">
        <time>1970-01-01T00:00:00+00:00</time>
        <ele>2903.0</ele>
      </trkpt>
      <trkpt lat="42.683203" lon="0.007405">
        <time>1970-01-01T00:00:00+00:00</time>
        <ele>2894.0</ele>
      </trkpt>
      <trkpt lat="42.683339" lon="0.006919">
        <time>1970-01-01T00:00:00+00:00</time>
        <ele>2908.0</ele>
      </trkpt>
      <trkpt lat="42.683431" lon="0.006862">
        <time>1970-01-01T00:00:00+00:00</time>
        <ele>2916.0</ele>
      </trkpt>
      <trkpt lat="42.683354" lon="0.006425">
        <time>1970-01-01T00:00:00+00:00</time>
        <ele>2915.0</ele>
      </trkpt>
      <trkpt lat="42.683503" lon="0.00593">
        <time>1970-01-01T00:00:00+00:00</time>
        <ele>2926.0</ele>
      </trkpt>
      <trkpt lat="42.683459" lon="0.005848">
        <time>1970-01-01T00:00:00+00:00</time>
        <ele>2925.0</ele>
      </trkpt>
      <trkpt lat="42.683552" lon="0.005286">
        <time>1970-01-01T00:00:00+00:00</time>
        <ele>2930.0</ele>
      </trkpt>
      <trkpt lat="42.683478" lon="0.005055">
        <time>1970-01-01T00:00:00+00:00</time>
        <ele>2928.0</ele>
      </trkpt>
      <trkpt lat="42.683417" lon="0.004107">
        <time>1970-01-01T00:00:00+00:00</time>
        <ele>2926.0</ele>
      </trkpt>
      <trkpt lat="42.683598" lon="0.003557">
        <time>1970-01-01T00:00:00+00:00</time>
        <ele>2929.0</ele>
      </trkpt>
      <trkpt lat="42.683684" lon="0.003499">
        <time>1970-01-01T00:00:00+00:00</time>
        <ele>2930.0</ele>
      </trkpt>
      <trkpt lat="42.683717" lon="0.003381">
        <time>1970-01-01T00:00:00+00:00</time>
        <ele>2930.0</ele>
      </trkpt>
      <trkpt lat="42.683742" lon="0.002891">
        <time>1970-01-01T00:00:00+00:00</time>
        <ele>2928.0</ele>
      </trkpt>
      <trkpt lat="42.683685" lon="0.002566">
        <time>1970-01-01T00:00:00+00:00</time>
        <ele>2924.0</ele>
      </trkpt>
      <trkpt lat="42.683747" lon="0.002434">
        <time>1970-01-01T00:00:00+00:00</time>
        <ele>2926.0</ele>
      </trkpt>
      <trkpt lat="42.683653" lon="0.002359">
        <time>1970-01-01T00:00:00+00:00</time>
        <ele>2921.0</ele>
      </trkpt>
      <trkpt lat="42.68362" lon="0.002084">
        <time>1970-01-01T00:00:00+00:00</time>
        <ele>2916.0</ele>
      </trkpt>
      <trkpt lat="42.683695" lon="0.001869">
        <time>1970-01-01T00:00:00+00:00</time>
        <ele>2917.0</ele>
      </trkpt>
      <trkpt lat="42.683692" lon="0.001531">
        <time>1970-01-01T00:00:00+00:00</time>
        <ele>2914.0</ele>
      </trkpt>
      <trkpt lat="42.68378" lon="0.001045">
        <time>1970-01-01T00:00:00+00:00</time>
        <ele>2916.0</ele>
      </trkpt>
      <trkpt lat="42.683694" lon="0.000916">
        <time>1970-01-01T00:00:00+00:00</time>
        <ele>2913.0</ele>
      </trkpt>
      <trkpt lat="42.683675" lon="0.000736">
        <time>1970-01-01T00:00:00+00:00</time>
        <ele>2913.0</ele>
      </trkpt>
      <trkpt lat="42.6839" lon="-3.6e-05">
        <time>1970-01-01T00:00:00+00:00</time>
        <ele>2917.0</ele>
      </trkpt>
      <trkpt lat="42.684019" lon="-0.000142">
        <time>1970-01-01T00:00:00+00:00</time>
        <ele>2920.0</ele>
      </trkpt>
      <trkpt lat="42.684045" lon="-0.000333">
        <time>1970-01-01T00:00:00+00:00</time>
        <ele>2918.0</ele>
      </trkpt>
      <trkpt lat="42.68397" lon="-0.000575">
        <time>1970-01-01T00:00:00+00:00</time>
        <ele>2915.0</ele>
      </trkpt>
      <trkpt lat="42.683996" lon="-0.000844">
        <time>1970-01-01T00:00:00+00:00</time>
        <ele>2913.0</ele>
      </trkpt>
      <trkpt lat="42.683792" lon="-0.00114">
        <time>1970-01-01T00:00:00+00:00</time>
        <ele>2911.0</ele>
      </trkpt>
      <trkpt lat="42.683755" lon="-0.001439">
        <time>1970-01-01T00:00:00+00:00</time>
        <ele>2907.0</ele>
      </trkpt>
      <trkpt lat="42.683633" lon="-0.001647">
        <time>1970-01-01T00:00:00+00:00</time>
        <ele>2904.0</ele>
      </trkpt>
      <trkpt lat="42.683662" lon="-0.001711">
        <time>1970-01-01T00:00:00+00:00</time>
        <ele>2903.0</ele>
      </trkpt>
      <trkpt lat="42.683603" lon="-0.001782">
        <time>1970-01-01T00:00:00+00:00</time>
        <ele>2903.0</ele>
      </trkpt>
      <trkpt lat="42.68367" lon="-0.002058">
        <time>1970-01-01T00:00:00+00:00</time>
        <ele>2901.0</ele>
      </trkpt>
      <trkpt lat="42.683547" lon="-0.002178">
        <time>1970-01-01T00:00:00+00:00</time>
        <ele>2902.0</ele>
      </trkpt>
      <trkpt lat="42.683547" lon="-0.002465">
        <time>1970-01-01T00:00:00+00:00</time>
        <ele>2900.0</ele>
      </trkpt>
      <trkpt lat="42.683459" lon="-0.002644">
        <time>1970-01-01T00:00:00+00:00</time>
        <ele>2898.0</ele>
      </trkpt>
      <trkpt lat="42.683466" lon="-0.002753">
        <time>1970-01-01T00:00:00+00:00</time>
        <ele>2896.0</ele>
      </trkpt>
      <trkpt lat="42.683506" lon="-0.002985">
        <time>1970-01-01T00:00:00+00:00</time>
        <ele>2894.0</ele>
      </trkpt>
      <trkpt lat="42.683634" lon="-0.003095">
        <time>1970-01-01T00:00:00+00:00</time>
        <ele>2893.0</ele>
      </trkpt>
      <trkpt lat="42.683696" lon="-0.003487">
        <time>1970-01-01T00:00:00+00:00</time>
        <ele>2894.0</ele>
      </trkpt>
      <trkpt lat="42.68388" lon="-0.003619">
        <time>1970-01-01T00:00:00+00:00</time>
        <ele>2896.0</ele>
      </trkpt>
      <trkpt lat="42.683893" lon="-0.004107">
        <time>1970-01-01T00:00:00+00:00</time>
        <ele>2892.0</ele>
      </trkpt>
      <trkpt lat="42.684076" lon="-0.005347">
        <time>1970-01-01T00:00:00+00:00</time>
        <ele>2898.0</ele>
      </trkpt>
      <trkpt lat="42.684029" lon="-0.005829">
        <time>1970-01-01T00:00:00+00:00</time>
        <ele>2895.0</ele>
      </trkpt>
      <trkpt lat="42.684296" lon="-0.006856">
        <time>1970-01-01T00:00:00+00:00</time>
        <ele>2908.0</ele>
      </trkpt>
      <trkpt lat="42.684347" lon="-0.008048">
        <time>1970-01-01T00:00:00+00:00</time>
        <ele>2916.0</ele>
      </trkpt>
      <trkpt lat="42.684475" lon="-0.008329">
        <time>1970-01-01T00:00:00+00:00</time>
        <ele>2920.0</ele>
      </trkpt>
      <trkpt lat="42.68441" lon="-0.008436">
        <time>1970-01-01T00:00:00+00:00</time>
        <ele>2920.0</ele>
      </trkpt>
      <trkpt lat="42.684436" lon="-0.008569">
        <time>1970-01-01T00:00:00+00:00</time>
        <ele>2922.0</ele>
      </trkpt>
      <trkpt lat="42.684328" lon="-0.008869">
        <time>1970-01-01T00:00:00+00:00</time>
        <ele>2924.0</ele>
      </trkpt>
      <trkpt lat="42.684332" lon="-0.008997">
        <time>1970-01-01T00:00:00+00:00</time>
        <ele>2925.0</ele>
      </trkpt>
      <trkpt lat="42.684412" lon="-0.009063">
        <time>1970-01-01T00:00:00+00:00</time>
        <ele>2927.0</ele>
      </trkpt>
      <trkpt lat="42.684555" lon="-0.008916">
        <time>1970-01-01T00:00:00+00:00</time>
        <ele>2927.0</ele>
      </trkpt>
      <trkpt lat="42.684562" lon="-0.008816">
        <time>1970-01-01T00:00:00+00:00</time>
        <ele>2926.0</ele>
      </trkpt>
      <trkpt lat="42.684704" lon="-0.008758">
        <time>1970-01-01T00:00:00+00:00</time>
        <ele>2929.0</ele>
      </trkpt>
      <trkpt lat="42.684641" lon="-0.009495">
        <time>1970-01-01T00:00:00+00:00</time>
        <ele>2934.0</ele>
      </trkpt>
      <trkpt lat="42.684822" lon="-0.010367">
        <time>1970-01-01T00:00:00+00:00</time>
        <ele>2950.0</ele>
      </trkpt>
      <trkpt lat="42.684778" lon="-0.010735">
        <time>1970-01-01T00:00:00+00:00</time>
        <ele>2955.0</ele>
      </trkpt>
      <trkpt lat="42.684861" lon="-0.011248">
        <time>1970-01-01T00:00:00+00:00</time>
        <ele>2957.0</ele>
      </trkpt>
      <trkpt lat="42.684844" lon="-0.011585">
        <time>1970-01-01T00:00:00+00:00</time>
        <ele>2956.0</ele>
      </trkpt>
      <trkpt lat="42.684979" lon="-0.012136">
        <time>1970-01-01T00:00:00+00:00</time>
        <ele>2951.0</ele>
      </trkpt>
      <trkpt lat="42.685016" lon="-0.013109">
        <time>1970-01-01T00:00:00+00:00</time>
        <ele>2963.0</ele>
      </trkpt>
      <trkpt lat="42.68505" lon="-0.013313">
        <time>1970-01-01T00:00:00+00:00</time>
        <ele>2965.0</ele>
      </trkpt>
      <trkpt lat="42.685111" lon="-0.013326">
        <time>1970-01-01T00:00:00+00:00</time>
        <ele>2964.0</ele>
      </trkpt>
      <trkpt lat="42.68512" lon="-0.01413">
        <time>1970-01-01T00:00:00+00:00</time>
        <ele>2967.0</ele>
      </trkpt>
      <trkpt lat="42.685035" lon="-0.014334">
        <time>1970-01-01T00:00:00+00:00</time>
        <ele>2966.0</ele>
      </trkpt>
      <trkpt lat="42.684986" lon="-0.014721">
        <time>1970-01-01T00:00:00+00:00</time>
        <ele>2964.0</ele>
      </trkpt>
      <trkpt lat="42.685035" lon="-0.014917">
        <time>1970-01-01T00:00:00+00:00</time>
        <ele>2967.0</ele>
      </trkpt>
      <trkpt lat="42.684994" lon="-0.015404">
        <time>1970-01-01T00:00:00+00:00</time>
        <ele>2965.0</ele>
      </trkpt>
      <trkpt lat="42.685103" lon="-0.015942">
        <time>1970-01-01T00:00:00+00:00</time>
        <ele>2963.0</ele>
      </trkpt>
      <trkpt lat="42.685096" lon="-0.016807">
        <time>1970-01-01T00:00:00+00:00</time>
        <ele>2963.0</ele>
      </trkpt>
      <trkpt lat="42.685409" lon="-0.017334">
        <time>1970-01-01T00:00:00+00:00</time>
        <ele>2965.0</ele>
      </trkpt>
      <trkpt lat="42.685567" lon="-0.017156">
        <time>1970-01-01T00:00:00+00:00</time>
        <ele>2968.0</ele>
      </trkpt>
      <trkpt lat="42.685802" lon="-0.017099">
        <time>1970-01-01T00:00:00+00:00</time>
        <ele>2962.0</ele>
      </trkpt>
      <trkpt lat="42.685701" lon="-0.017099">
        <time>1970-01-01T00:00:00+00:00</time>
        <ele>2966.0</ele>
      </trkpt>
      <trkpt lat="42.685529" lon="-0.016874">
        <time>1970-01-01T00:00:00+00:00</time>
        <ele>2953.0</ele>
      </trkpt>
      <trkpt lat="42.685408" lon="-0.01682">
        <time>1970-01-01T00:00:00+00:00</time>
        <ele>2954.0</ele>
      </trkpt>
      <trkpt lat="42.685132" lon="-0.016873">
        <time>1970-01-01T00:00:00+00:00</time>
        <ele>2961.0</ele>
      </trkpt>
      <trkpt lat="42.685063" lon="-0.016726">
        <time>1970-01-01T00:00:00+00:00</time>
        <ele>2965.0</ele>
      </trkpt>
      <trkpt lat="42.684887" lon="-0.016671">
        <time>1970-01-01T00:00:00+00:00</time>
        <ele>2963.0</ele>
      </trkpt>
      <trkpt lat="42.684849" lon="-0.016536">
        <time>1970-01-01T00:00:00+00:00</time>
        <ele>2963.0</ele>
      </trkpt>
      <trkpt lat="42.684677" lon="-0.016509">
        <time>1970-01-01T00:00:00+00:00</time>
        <ele>2954.0</ele>
      </trkpt>
      <trkpt lat="42.684674" lon="-0.016083">
        <time>1970-01-01T00:00:00+00:00</time>
        <ele>2953.0</ele>
      </trkpt>
      <trkpt lat="42.684591" lon="-0.015877">
        <time>1970-01-01T00:00:00+00:00</time>
        <ele>2944.0</ele>
      </trkpt>
      <trkpt lat="42.684591" lon="-0.015726">
        <time>1970-01-01T00:00:00+00:00</time>
        <ele>2944.0</ele>
      </trkpt>
      <trkpt lat="42.68448" lon="-0.015568">
        <time>1970-01-01T00:00:00+00:00</time>
        <ele>2933.0</ele>
      </trkpt>
      <trkpt lat="42.684447" lon="-0.015302">
        <time>1970-01-01T00:00:00+00:00</time>
        <ele>2926.0</ele>
      </trkpt>
      <trkpt lat="42.684495" lon="-0.015054">
        <time>1970-01-01T00:00:00+00:00</time>
        <ele>2930.0</ele>
      </trkpt>
      <trkpt lat="42.68447" lon="-0.014106">
        <time>1970-01-01T00:00:00+00:00</time>
        <ele>2924.0</ele>
      </trkpt>
      <trkpt lat="42.684301" lon="-0.014225">
        <time>1970-01-01T00:00:00+00:00</time>
        <ele>2901.0</ele>
      </trkpt>
      <trkpt lat="42.684305" lon="-0.014706">
        <time>1970-01-01T00:00:00+00:00</time>
        <ele>2905.0</ele>
      </trkpt>
      <trkpt lat="42.684189" lon="-0.014984">
        <time>1970-01-01T00:00:00+00:00</time>
        <ele>2895.0</ele>
      </trkpt>
      <trkpt lat="42.684249" lon="-0.01505">
        <time>1970-01-01T00:00:00+00:00</time>
        <ele>2901.0</ele>
      </trkpt>
      <trkpt lat="42.684165" lon="-0.015333">
        <time>1970-01-01T00:00:00+00:00</time>
        <ele>2895.0</ele>
      </trkpt>
      <trkpt lat="42.68416" lon="-0.015841">
        <time>1970-01-01T00:00:00+00:00</time>
        <ele>2896.0</ele>
      </trkpt>
      <trkpt lat="42.684211" lon="-0.016094">
        <time>1970-01-01T00:00:00+00:00</time>
        <ele>2900.0</ele>
      </trkpt>
      <trkpt lat="42.68401" lon="-0.016807">
        <time>1970-01-01T00:00:00+00:00</time>
        <ele>2858.0</ele>
      </trkpt>
      <trkpt lat="42.684081" lon="-0.017116">
        <time>1970-01-01T00:00:00+00:00</time>
        <ele>2841.0</ele>
      </trkpt>
      <trkpt lat="42.684292" lon="-0.017412">
        <time>1970-01-01T00:00:00+00:00</time>
        <ele>2845.0</ele>
      </trkpt>
      <trkpt lat="42.684269" lon="-0.017504">
        <time>1970-01-01T00:00:00+00:00</time>
        <ele>2836.0</ele>
      </trkpt>
      <trkpt lat="42.684379" lon="-0.017903">
        <time>1970-01-01T00:00:00+00:00</time>
        <ele>2823.0</ele>
      </trkpt>
      <trkpt lat="42.684478" lon="-0.017951">
        <time>1970-01-01T00:00:00+00:00</time>
        <ele>2832.0</ele>
      </trkpt>
      <trkpt lat="42.68466" lon="-0.018407">
        <time>1970-01-01T00:00:00+00:00</time>
        <ele>2818.0</ele>
      </trkpt>
      <trkpt lat="42.684872" lon="-0.018725">
        <time>1970-01-01T00:00:00+00:00</time>
        <ele>2820.0</ele>
      </trkpt>
      <trkpt lat="42.685013" lon="-0.019551">
        <time>1970-01-01T00:00:00+00:00</time>
        <ele>2788.0</ele>
      </trkpt>
      <trkpt lat="42.685113" lon="-0.019605">
        <time>1970-01-01T00:00:00+00:00</time>
        <ele>2797.0</ele>
      </trkpt>
      <trkpt lat="42.685135" lon="-0.019709">
        <time>1970-01-01T00:00:00+00:00</time>
        <ele>2792.0</ele>
      </trkpt>
      <trkpt lat="42.685302" lon="-0.019889">
        <time>1970-01-01T00:00:00+00:00</time>
        <ele>2796.0</ele>
      </trkpt>
      <trkpt lat="42.685637" lon="-0.019953">
        <time>1970-01-01T00:00:00+00:00</time>
        <ele>2818.0</ele>
      </trkpt>
      <trkpt lat="42.685778" lon="-0.020139">
        <time>1970-01-01T00:00:00+00:00</time>
        <ele>2821.0</ele>
      </trkpt>
      <trkpt lat="42.685847" lon="-0.020355">
        <time>1970-01-01T00:00:00+00:00</time>
        <ele>2819.0</ele>
      </trkpt>
      <trkpt lat="42.686031" lon="-0.02043">
        <time>1970-01-01T00:00:00+00:00</time>
        <ele>2835.0</ele>
      </trkpt>
      <trkpt lat="42.686195" lon="-0.020731">
        <time>1970-01-01T00:00:00+00:00</time>
        <ele>2843.0</ele>
      </trkpt>
      <trkpt lat="42.68609" lon="-0.020977">
        <time>1970-01-01T00:00:00+00:00</time>
        <ele>2824.0</ele>
      </trkpt>
      <trkpt lat="42.686095" lon="-0.021094">
        <time>1970-01-01T00:00:00+00:00</time>
        <ele>2820.0</ele>
      </trkpt>
      <trkpt lat="42.686341" lon="-0.021119">
        <time>1970-01-01T00:00:00+00:00</time>
        <ele>2842.0</ele>
      </trkpt>
      <trkpt lat="42.686398" lon="-0.021199">
        <time>1970-01-01T00:00:00+00:00</time>
        <ele>2843.0</ele>
      </trkpt>
      <trkpt lat="42.68653" lon="-0.021174">
        <time>1970-01-01T00:00:00+00:00</time>
        <ele>2855.0</ele>
      </trkpt>
      <trkpt lat="42.686666" lon="-0.02159">
        <time>1970-01-01T00:00:00+00:00</time>
        <ele>2848.0</ele>
      </trkpt>
      <trkpt lat="42.686638" lon="-0.021729">
        <time>1970-01-01T00:00:00+00:00</time>
        <ele>2841.0</ele>
      </trkpt>
      <trkpt lat="42.687245" lon="-0.02272">
        <time>1970-01-01T00:00:00+00:00</time>
        <ele>2856.0</ele>
      </trkpt>
      <trkpt lat="42.68721" lon="-0.022831">
        <time>1970-01-01T00:00:00+00:00</time>
        <ele>2853.0</ele>
      </trkpt>
      <trkpt lat="42.687309" lon="-0.023159">
        <time>1970-01-01T00:00:00+00:00</time>
        <ele>2859.0</ele>
      </trkpt>
      <trkpt lat="42.68721" lon="-0.023548">
        <time>1970-01-01T00:00:00+00:00</time>
        <ele>2847.0</ele>
      </trkpt>
      <trkpt lat="42.687212" lon="-0.023759">
        <time>1970-01-01T00:00:00+00:00</time>
        <ele>2848.0</ele>
      </trkpt>
      <trkpt lat="42.687091" lon="-0.023971">
        <time>1970-01-01T00:00:00+00:00</time>
        <ele>2843.0</ele>
      </trkpt>
      <trkpt lat="42.68709" lon="-0.024173">
        <time>1970-01-01T00:00:00+00:00</time>
        <ele>2848.0</ele>
      </trkpt>
      <trkpt lat="42.68717" lon="-0.024332">
        <time>1970-01-01T00:00:00+00:00</time>
        <ele>2858.0</ele>
      </trkpt>
      <trkpt lat="42.687067" lon="-0.024556">
        <time>1970-01-01T00:00:00+00:00</time>
        <ele>2860.0</ele>
      </trkpt>
      <trkpt lat="42.686781" lon="-0.024765">
        <time>1970-01-01T00:00:00+00:00</time>
        <ele>2858.0</ele>
      </trkpt>
      <trkpt lat="42.686775" lon="-0.02501">
        <time>1970-01-01T00:00:00+00:00</time>
        <ele>2867.0</ele>
      </trkpt>
      <trkpt lat="42.686634" lon="-0.02533">
        <time>1970-01-01T00:00:00+00:00</time>
        <ele>2869.0</ele>
      </trkpt>
      <trkpt lat="42.686734" lon="-0.025653">
        <time>1970-01-01T00:00:00+00:00</time>
        <ele>2887.0</ele>
      </trkpt>
      <trkpt lat="42.686933" lon="-0.025709">
        <time>1970-01-01T00:00:00+00:00</time>
        <ele>2900.0</ele>
      </trkpt>
      <trkpt lat="42.686853" lon="-0.026174">
        <time>1970-01-01T00:00:00+00:00</time>
        <ele>2910.0</ele>
      </trkpt>
      <trkpt lat="42.68704" lon="-0.026126">
        <time>1970-01-01T00:00:00+00:00</time>
        <ele>2921.0</ele>
      </trkpt>
      <trkpt lat="42.687074" lon="-0.026189">
        <time>1970-01-01T00:00:00+00:00</time>
        <ele>2926.0</ele>
      </trkpt>
      <trkpt lat="42.687171" lon="-0.026183">
        <time>1970-01-01T00:00:00+00:00</time>
        <ele>2932.0</ele>
      </trkpt>
      <trkpt lat="42.687158" lon="-0.026133">
        <time>1970-01-01T00:00:00+00:00</time>
        <ele>2928.0</ele>
      </trkpt>
      <trkpt lat="42.687262" lon="-0.026249">
        <time>1970-01-01T00:00:00+00:00</time>
        <ele>2940.0</ele>
      </trkpt>
      <trkpt lat="42.687078" lon="-0.026553">
        <time>1970-01-01T00:00:00+00:00</time>
        <ele>2944.0</ele>
      </trkpt>
      <trkpt lat="42.68707" lon="-0.026696">
        <time>1970-01-01T00:00:00+00:00</time>
        <ele>2949.0</ele>
      </trkpt>
      <trkpt lat="42.687015" lon="-0.026736">
        <time>1970-01-01T00:00:00+00:00</time>
        <ele>2946.0</ele>
      </trkpt>
      <trkpt lat="42.687042" lon="-0.026838">
        <time>1970-01-01T00:00:00+00:00</time>
        <ele>2951.0</ele>
      </trkpt>
      <trkpt lat="42.687363" lon="-0.026804">
        <time>1970-01-01T00:00:00+00:00</time>
        <ele>2973.0</ele>
      </trkpt>
      <trkpt lat="42.687407" lon="-0.026852">
        <time>1970-01-01T00:00:00+00:00</time>
        <ele>2977.0</ele>
      </trkpt>
      <trkpt lat="42.687432" lon="-0.026752">
        <time>1970-01-01T00:00:00+00:00</time>
        <ele>2977.0</ele>
      </trkpt>
      <trkpt lat="42.687532" lon="-0.026691">
        <time>1970-01-01T00:00:00+00:00</time>
        <ele>2984.0</ele>
      </trkpt>
      <trkpt lat="42.68768" lon="-0.026684">
        <time>1970-01-01T00:00:00+00:00</time>
        <ele>2993.0</ele>
      </trkpt>
      <trkpt lat="42.687873" lon="-0.026784">
        <time>1970-01-01T00:00:00+00:00</time>
        <ele>2999.0</ele>
      </trkpt>
      <trkpt lat="42.687686" lon="-0.02674">
        <time>1970-01-01T00:00:00+00:00</time>
        <ele>2994.0</ele>
      </trkpt>
      <trkpt lat="42.687583" lon="-0.026588">
        <time>1970-01-01T00:00:00+00:00</time>
        <ele>2983.0</ele>
      </trkpt>
      <trkpt lat="42.687522" lon="-0.026775">
        <time>1970-01-01T00:00:00+00:00</time>
        <ele>2984.0</ele>
      </trkpt>
      <trkpt lat="42.68739" lon="-0.026897">
        <time>1970-01-01T00:00:00+00:00</time>
        <ele>2977.0</ele>
      </trkpt>
      <trkpt lat="42.687375" lon="-0.026759">
        <time>1970-01-01T00:00:00+00:00</time>
        <ele>2972.0</ele>
      </trkpt>
      <trkpt lat="42.687301" lon="-0.026709">
        <time>1970-01-01T00:00:00+00:00</time>
        <ele>2965.0</ele>
      </trkpt>
      <trkpt lat="42.687139" lon="-0.026824">
        <time>1970-01-01T00:00:00+00:00</time>
        <ele>2957.0</ele>
      </trkpt>
      <trkpt lat="42.687028" lon="-0.026805">
        <time>1970-01-01T00:00:00+00:00</time>
        <ele>2949.0</ele>
      </trkpt>
      <trkpt lat="42.686853" lon="-0.026682">
        <time>1970-01-01T00:00:00+00:00</time>
        <ele>2934.0</ele>
      </trkpt>
      <trkpt lat="42.686852" lon="-0.026556">
        <time>1970-01-01T00:00:00+00:00</time>
        <ele>2929.0</ele>
      </trkpt>
      <trkpt lat="42.686713" lon="-0.026554">
        <time>1970-01-01T00:00:00+00:00</time>
        <ele>2919.0</ele>
      </trkpt>
      <trkpt lat="42.686641" lon="-0.026443">
        <time>1970-01-01T00:00:00+00:00</time>
        <ele>2910.0</ele>
      </trkpt>
      <trkpt lat="42.686656" lon="-0.026337">
        <time>1970-01-01T00:00:00+00:00</time>
        <ele>2906.0</ele>
      </trkpt>
      <trkpt lat="42.686841" lon="-0.026211">
        <time>1970-01-01T00:00:00+00:00</time>
        <ele>2911.0</ele>
      </trkpt>
      <trkpt lat="42.686841" lon="-0.025773">
        <time>1970-01-01T00:00:00+00:00</time>
        <ele>2896.0</ele>
      </trkpt>
      <trkpt lat="42.686807" lon="-0.025576">
        <time>1970-01-01T00:00:00+00:00</time>
        <ele>2890.0</ele>
      </trkpt>
      <trkpt lat="42.686762" lon="-0.025609">
        <time>1970-01-01T00:00:00+00:00</time>
        <ele>2888.0</ele>
      </trkpt>
      <trkpt lat="42.68676" lon="-0.025551">
        <time>1970-01-01T00:00:00+00:00</time>
        <ele>2886.0</ele>
      </trkpt>
      <trkpt lat="42.686681" lon="-0.025535">
        <time>1970-01-01T00:00:00+00:00</time>
        <ele>2881.0</ele>
      </trkpt>
      <trkpt lat="42.686666" lon="-0.025363">
        <time>1970-01-01T00:00:00+00:00</time>
        <ele>2874.0</ele>
      </trkpt>
      <trkpt lat="42.686728" lon="-0.02524">
        <time>1970-01-01T00:00:00+00:00</time>
        <ele>2874.0</ele>
      </trkpt>
      <trkpt lat="42.686666" lon="-0.025035">
        <time>1970-01-01T00:00:00+00:00</time>
        <ele>2862.0</ele>
      </trkpt>
      <trkpt lat="42.686721" lon="-0.025031">
        <time>1970-01-01T00:00:00+00:00</time>
        <ele>2865.0</ele>
      </trkpt>
      <trkpt lat="42.686632" lon="-0.02493">
        <time>1970-01-01T00:00:00+00:00</time>
        <ele>2855.0</ele>
      </trkpt>
      <trkpt lat="42.686621" lon="-0.024744">
        <time>1970-01-01T00:00:00+00:00</time>
        <ele>2847.0</ele>
      </trkpt>
      <trkpt lat="42.686687" lon="-0.024626">
        <time>1970-01-01T00:00:00+00:00</time>
        <ele>2847.0</ele>
      </trkpt>
      <trkpt lat="42.686676" lon="-0.0247">
        <time>1970-01-01T00:00:00+00:00</time>
        <ele>2850.0</ele>
      </trkpt>
      <trkpt lat="42.686749" lon="-0.024686">
        <time>1970-01-01T00:00:00+00:00</time>
        <ele>2853.0</ele>
      </trkpt>
      <trkpt lat="42.686796" lon="-0.024379">
        <time>1970-01-01T00:00:00+00:00</time>
        <ele>2842.0</ele>
      </trkpt>
      <trkpt lat="42.686717" lon="-0.024441">
        <time>1970-01-01T00:00:00+00:00</time>
        <ele>2841.0</ele>
      </trkpt>
      <trkpt lat="42.68647" lon="-0.024403">
        <time>1970-01-01T00:00:00+00:00</time>
        <ele>2828.0</ele>
      </trkpt>
      <trkpt lat="42.686349" lon="-0.024549">
        <time>1970-01-01T00:00:00+00:00</time>
        <ele>2824.0</ele>
      </trkpt>
      <trkpt lat="42.686214" lon="-0.024474">
        <time>1970-01-01T00:00:00+00:00</time>
        <ele>2816.0</ele>
      </trkpt>
      <trkpt lat="42.686064" lon="-0.024266">
        <time>1970-01-01T00:00:00+00:00</time>
        <ele>2806.0</ele>
      </trkpt>
      <trkpt lat="42.686082" lon="-0.024222">
        <time>1970-01-01T00:00:00+00:00</time>
        <ele>2806.0</ele>
      </trkpt>
      <trkpt lat="42.68591" lon="-0.024266">
        <time>1970-01-01T00:00:00+00:00</time>
        <ele>2801.0</ele>
      </trkpt>
      <trkpt lat="42.685855" lon="-0.024351">
        <time>1970-01-01T00:00:00+00:00</time>
        <ele>2798.0</ele>
      </trkpt>
      <trkpt lat="42.685942" lon="-0.024437">
        <time>1970-01-01T00:00:00+00:00</time>
        <ele>2803.0</ele>
      </trkpt>
      <trkpt lat="42.685987" lon="-0.024825">
        <time>1970-01-01T00:00:00+00:00</time>
        <ele>2801.0</ele>
      </trkpt>
      <trkpt lat="42.685938" lon="-0.024866">
        <time>1970-01-01T00:00:00+00:00</time>
        <ele>2796.0</ele>
      </trkpt>
      <trkpt lat="42.685894" lon="-0.025221">
        <time>1970-01-01T00:00:00+00:00</time>
        <ele>2788.0</ele>
      </trkpt>
      <trkpt lat="42.685736" lon="-0.025714">
        <time>1970-01-01T00:00:00+00:00</time>
        <ele>2785.0</ele>
      </trkpt>
      <trkpt lat="42.685711" lon="-0.025671">
        <time>1970-01-01T00:00:00+00:00</time>
        <ele>2782.0</ele>
      </trkpt>
      <trkpt lat="42.685644" lon="-0.025777">
        <time>1970-01-01T00:00:00+00:00</time>
        <ele>2778.0</ele>
      </trkpt>
      <trkpt lat="42.685651" lon="-0.025924">
        <time>1970-01-01T00:00:00+00:00</time>
        <ele>2783.0</ele>
      </trkpt>
      <trkpt lat="42.685543" lon="-0.026032">
        <time>1970-01-01T00:00:00+00:00</time>
        <ele>2774.0</ele>
      </trkpt>
      <trkpt lat="42.685944" lon="-0.026985">
        <time>1970-01-01T00:00:00+00:00</time>
        <ele>2817.0</ele>
      </trkpt>
      <trkpt lat="42.68618" lon="-0.026974">
        <time>1970-01-01T00:00:00+00:00</time>
        <ele>2847.0</ele>
      </trkpt>
      <trkpt lat="42.686233" lon="-0.027095">
        <time>1970-01-01T00:00:00+00:00</time>
        <ele>2849.0</ele>
      </trkpt>
      <trkpt lat="42.686412" lon="-0.027131">
        <time>1970-01-01T00:00:00+00:00</time>
        <ele>2872.0</ele>
      </trkpt>
      <trkpt lat="42.686425" lon="-0.027206">
        <time>1970-01-01T00:00:00+00:00</time>
        <ele>2870.0</ele>
      </trkpt>
      <trkpt lat="42.686524" lon="-0.027248">
        <time>1970-01-01T00:00:00+00:00</time>
        <ele>2880.0</ele>
      </trkpt>
      <trkpt lat="42.686489" lon="-0.027326">
        <time>1970-01-01T00:00:00+00:00</time>
        <ele>2871.0</ele>
      </trkpt>
      <trkpt lat="42.686553" lon="-0.027514">
        <time>1970-01-01T00:00:00+00:00</time>
        <ele>2864.0</ele>
      </trkpt>
      <trkpt lat="42.686491" lon="-0.027783">
        <time>1970-01-01T00:00:00+00:00</time>
        <ele>2833.0</ele>
      </trkpt>
      <trkpt lat="42.686576" lon="-0.027985">
        <time>1970-01-01T00:00:00+00:00</time>
        <ele>2819.0</ele>
      </trkpt>
      <trkpt lat="42.686506" lon="-0.028407">
        <time>1970-01-01T00:00:00+00:00</time>
        <ele>2776.0</ele>
      </trkpt>
      <trkpt lat="42.686719" lon="-0.028288">
        <time>1970-01-01T00:00:00+00:00</time>
        <ele>2803.0</ele>
      </trkpt>
      <trkpt lat="42.686745" lon="-0.028421">
        <time>1970-01-01T00:00:00+00:00</time>
        <ele>2795.0</ele>
      </trkpt>
      <trkpt lat="42.686596" lon="-0.028815">
        <time>1970-01-01T00:00:00+00:00</time>
        <ele>2754.0</ele>
      </trkpt>
      <trkpt lat="42.686773" lon="-0.028831">
        <time>1970-01-01T00:00:00+00:00</time>
        <ele>2767.0</ele>
      </trkpt>
      <trkpt lat="42.686758" lon="-0.028901">
        <time>1970-01-01T00:00:00+00:00</time>
        <ele>2762.0</ele>
      </trkpt>
      <trkpt lat="42.686855" lon="-0.02893">
        <time>1970-01-01T00:00:00+00:00</time>
        <ele>2767.0</ele>
      </trkpt>
      <trkpt lat="42.68682" lon="-0.029064">
        <time>1970-01-01T00:00:00+00:00</time>
        <ele>2757.0</ele>
      </trkpt>
      <trkpt lat="42.686907" lon="-0.029305">
        <time>1970-01-01T00:00:00+00:00</time>
        <ele>2750.0</ele>
      </trkpt>
      <trkpt lat="42.68698" lon="-0.029353">
        <time>1970-01-01T00:00:00+00:00</time>
        <ele>2751.0</ele>
      </trkpt>
      <trkpt lat="42.686946" lon="-0.029558">
        <time>1970-01-01T00:00:00+00:00</time>
        <ele>2739.0</ele>
      </trkpt>
      <trkpt lat="42.68705" lon="-0.029567">
        <time>1970-01-01T00:00:00+00:00</time>
        <ele>2744.0</ele>
      </trkpt>
      <trkpt lat="42.687044" lon="-0.029642">
        <time>1970-01-01T00:00:00+00:00</time>
        <ele>2740.0</ele>
      </trkpt>
      <trkpt lat="42.687188" lon="-0.029613">
        <time>1970-01-01T00:00:00+00:00</time>
        <ele>2748.0</ele>
      </trkpt>
      <trkpt lat="42.687215" lon="-0.029685">
        <time>1970-01-01T00:00:00+00:00</time>
        <ele>2747.0</ele>
      </trkpt>
      <trkpt lat="42.68696" lon="-0.029945">
        <time>1970-01-01T00:00:00+00:00</time>
        <ele>2725.0</ele>
      </trkpt>
      <trkpt lat="42.687071" lon="-0.029947">
        <time>1970-01-01T00:00:00+00:00</time>
        <ele>2730.0</ele>
      </trkpt>
      <trkpt lat="42.687282" lon="-0.029787">
        <time>1970-01-01T00:00:00+00:00</time>
        <ele>2746.0</ele>
      </trkpt>
      <trkpt lat="42.687347" lon="-0.029872">
        <time>1970-01-01T00:00:00+00:00</time>
        <ele>2747.0</ele>
      </trkpt>
      <trkpt lat="42.687348" lon="-0.030611">
        <time>1970-01-01T00:00:00+00:00</time>
        <ele>2716.0</ele>
      </trkpt>
      <trkpt lat="42.687664" lon="-0.03071">
        <time>1970-01-01T00:00:00+00:00</time>
        <ele>2720.0</ele>
      </trkpt>
      <trkpt lat="42.687428" lon="-0.030916">
        <time>1970-01-01T00:00:00+00:00</time>
        <ele>2705.0</ele>
      </trkpt>
      <trkpt lat="42.687708" lon="-0.030795">
        <time>1970-01-01T00:00:00+00:00</time>
        <ele>2716.0</ele>
      </trkpt>
      <trkpt lat="42.687998" lon="-0.030972">
        <time>1970-01-01T00:00:00+00:00</time>
        <ele>2701.0</ele>
      </trkpt>
      <trkpt lat="42.687953" lon="-0.031108">
        <time>1970-01-01T00:00:00+00:00</time>
        <ele>2691.0</ele>
      </trkpt>
      <trkpt lat="42.688055" lon="-0.031025">
        <time>1970-01-01T00:00:00+00:00</time>
        <ele>2696.0</ele>
      </trkpt>
      <trkpt lat="42.688395" lon="-0.031044">
        <time>1970-01-01T00:00:00+00:00</time>
        <ele>2704.0</ele>
      </trkpt>
      <trkpt lat="42.688568" lon="-0.031188">
        <time>1970-01-01T00:00:00+00:00</time>
        <ele>2703.0</ele>
      </trkpt>
      <trkpt lat="42.688675" lon="-0.031662">
        <time>1970-01-01T00:00:00+00:00</time>
        <ele>2687.0</ele>
      </trkpt>
      <trkpt lat="42.688751" lon="-0.031658">
        <time>1970-01-01T00:00:00+00:00</time>
        <ele>2690.0</ele>
      </trkpt>
      <trkpt lat="42.68874" lon="-0.031707">
        <time>1970-01-01T00:00:00+00:00</time>
        <ele>2688.0</ele>
      </trkpt>
      <trkpt lat="42.688962" lon="-0.031447">
        <time>1970-01-01T00:00:00+00:00</time>
        <ele>2715.0</ele>
      </trkpt>
      <trkpt lat="42.688998" lon="-0.031747">
        <time>1970-01-01T00:00:00+00:00</time>
        <ele>2699.0</ele>
      </trkpt>
      <trkpt lat="42.689369" lon="-0.031775">
        <time>1970-01-01T00:00:00+00:00</time>
        <ele>2727.0</ele>
      </trkpt>
      <trkpt lat="42.689569" lon="-0.031887">
        <time>1970-01-01T00:00:00+00:00</time>
        <ele>2742.0</ele>
      </trkpt>
      <trkpt lat="42.689669" lon="-0.032029">
        <time>1970-01-01T00:00:00+00:00</time>
        <ele>2742.0</ele>
      </trkpt>
      <trkpt lat="42.689824" lon="-0.031915">
        <time>1970-01-01T00:00:00+00:00</time>
        <ele>2777.0</ele>
      </trkpt>
      <trkpt lat="42.689968" lon="-0.031949">
        <time>1970-01-01T00:00:00+00:00</time>
        <ele>2793.0</ele>
      </trkpt>
      <trkpt lat="42.689971" lon="-0.032006">
        <time>1970-01-01T00:00:00+00:00</time>
        <ele>2788.0</ele>
      </trkpt>
      <trkpt lat="42.690026" lon="-0.031964">
        <time>1970-01-01T00:00:00+00:00</time>
        <ele>2799.0</ele>
      </trkpt>
      <trkpt lat="42.690191" lon="-0.032051">
        <time>1970-01-01T00:00:00+00:00</time>
        <ele>2814.0</ele>
      </trkpt>
      <trkpt lat="42.690191" lon="-0.032271">
        <time>1970-01-01T00:00:00+00:00</time>
        <ele>2791.0</ele>
      </trkpt>
      <trkpt lat="42.690125" lon="-0.03235">
        <time>1970-01-01T00:00:00+00:00</time>
        <ele>2774.0</ele>
      </trkpt>
      <trkpt lat="42.690394" lon="-0.032422">
        <time>1970-01-01T00:00:00+00:00</time>
        <ele>2804.0</ele>
      </trkpt>
      <trkpt lat="42.690918" lon="-0.032024">
        <time>1970-01-01T00:00:00+00:00</time>
        <ele>2828.0</ele>
      </trkpt>
      <trkpt lat="42.690858" lon="-0.032474">
        <time>1970-01-01T00:00:00+00:00</time>
        <ele>2821.0</ele>
      </trkpt>
      <trkpt lat="42.69057" lon="-0.033187">
        <time>1970-01-01T00:00:00+00:00</time>
        <ele>2774.0</ele>
      </trkpt>
      <trkpt lat="42.690842" lon="-0.033136">
        <time>1970-01-01T00:00:00+00:00</time>
        <ele>2796.0</ele>
      </trkpt>
      <trkpt lat="42.690898" lon="-0.033215">
        <time>1970-01-01T00:00:00+00:00</time>
        <ele>2792.0</ele>
      </trkpt>
      <trkpt lat="42.690844" lon="-0.033211">
        <time>1970-01-01T00:00:00+00:00</time>
        <ele>2792.0</ele>
      </trkpt>
      <trkpt lat="42.690766" lon="-0.033612">
        <time>1970-01-01T00:00:00+00:00</time>
        <ele>2775.0</ele>
      </trkpt>
      <trkpt lat="42.690757" lon="-0.033912">
        <time>1970-01-01T00:00:00+00:00</time>
        <ele>2775.0</ele>
      </trkpt>
      <trkpt lat="42.690807" lon="-0.033969">
        <time>1970-01-01T00:00:00+00:00</time>
        <ele>2778.0</ele>
      </trkpt>
      <trkpt lat="42.690719" lon="-0.034172">
        <time>1970-01-01T00:00:00+00:00</time>
        <ele>2775.0</ele>
      </trkpt>
      <trkpt lat="42.691311" lon="-0.034127">
        <time>1970-01-01T00:00:00+00:00</time>
        <ele>2785.0</ele>
      </trkpt>
      <trkpt lat="42.691223" lon="-0.034118">
        <time>1970-01-01T00:00:00+00:00</time>
        <ele>2789.0</ele>
      </trkpt>
      <trkpt lat="42.690889" lon="-0.034513">
        <time>1970-01-01T00:00:00+00:00</time>
        <ele>2790.0</ele>
      </trkpt>
      <trkpt lat="42.690848" lon="-0.034737">
        <time>1970-01-01T00:00:00+00:00</time>
        <ele>2791.0</ele>
      </trkpt>
      <trkpt lat="42.691057" lon="-0.034177">
        <time>1970-01-01T00:00:00+00:00</time>
        <ele>2792.0</ele>
      </trkpt>
      <trkpt lat="42.690903" lon="-0.034488">
        <time>1970-01-01T00:00:00+00:00</time>
        <ele>2791.0</ele>
      </trkpt>
      <trkpt lat="42.690983" lon="-0.034024">
        <time>1970-01-01T00:00:00+00:00</time>
        <ele>2788.0</ele>
      </trkpt>
      <trkpt lat="42.691055" lon="-0.0341">
        <time>1970-01-01T00:00:00+00:00</time>
        <ele>2791.0</ele>
      </trkpt>
      <trkpt lat="42.691109" lon="-0.034039">
        <time>1970-01-01T00:00:00+00:00</time>
        <ele>2789.0</ele>
      </trkpt>
      <trkpt lat="42.691266" lon="-0.034345">
        <time>1970-01-01T00:00:00+00:00</time>
        <ele>2791.0</ele>
      </trkpt>
      <trkpt lat="42.691318" lon="-0.034176">
        <time>1970-01-01T00:00:00+00:00</time>
        <ele>2785.0</ele>
      </trkpt>
      <trkpt lat="42.691659" lon="-0.034569">
        <time>1970-01-01T00:00:00+00:00</time>
        <ele>2768.0</ele>
      </trkpt>
      <trkpt lat="42.691631" lon="-0.034539">
        <time>1970-01-01T00:00:00+00:00</time>
        <ele>2769.0</ele>
      </trkpt>
      <trkpt lat="42.691698" lon="-0.034484">
        <time>1970-01-01T00:00:00+00:00</time>
        <ele>2763.0</ele>
      </trkpt>
      <trkpt lat="42.691873" lon="-0.034595">
        <time>1970-01-01T00:00:00+00:00</time>
        <ele>2754.0</ele>
      </trkpt>
      <trkpt lat="42.69216" lon="-0.034618">
        <time>1970-01-01T00:00:00+00:00</time>
        <ele>2739.0</ele>
      </trkpt>
      <trkpt lat="42.692227" lon="-0.034691">
        <time>1970-01-01T00:00:00+00:00</time>
        <ele>2738.0</ele>
      </trkpt>
      <trkpt lat="42.692234" lon="-0.034508">
        <time>1970-01-01T00:00:00+00:00</time>
        <ele>2734.0</ele>
      </trkpt>
      <trkpt lat="42.692568" lon="-0.034273">
        <time>1970-01-01T00:00:00+00:00</time>
        <ele>2729.0</ele>
      </trkpt>
      <trkpt lat="42.693157" lon="-0.034195">
        <time>1970-01-01T00:00:00+00:00</time>
        <ele>2722.0</ele>
      </trkpt>
      <trkpt lat="42.693381" lon="-0.034387">
        <time>1970-01-01T00:00:00+00:00</time>
        <ele>2713.0</ele>
      </trkpt>
      <trkpt lat="42.693803" lon="-0.034933">
        <time>1970-01-01T00:00:00+00:00</time>
        <ele>2691.0</ele>
      </trkpt>
      <trkpt lat="42.693855" lon="-0.034601">
        <time>1970-01-01T00:00:00+00:00</time>
        <ele>2683.0</ele>
      </trkpt>
      <trkpt lat="42.694226" lon="-0.034045">
        <time>1970-01-01T00:00:00+00:00</time>
        <ele>2651.0</ele>
      </trkpt>
      <trkpt lat="42.695178" lon="-0.033509">
        <time>1970-01-01T00:00:00+00:00</time>
        <ele>2595.0</ele>
      </trkpt>
      <trkpt lat="42.695386" lon="-0.033484">
        <time>1970-01-01T00:00:00+00:00</time>
        <ele>2587.0</ele>
      </trkpt>
      <trkpt lat="42.695705" lon="-0.033647">
        <time>1970-01-01T00:00:00+00:00</time>
        <ele>2585.0</ele>
      </trkpt>
      <trkpt lat="42.695851" lon="-0.033486">
        <time>1970-01-01T00:00:00+00:00</time>
        <ele>2580.0</ele>
      </trkpt>
      <trkpt lat="42.695981" lon="-0.033445">
        <time>1970-01-01T00:00:00+00:00</time>
        <ele>2578.0</ele>
      </trkpt>
      <trkpt lat="42.696221" lon="-0.033553">
        <time>1970-01-01T00:00:00+00:00</time>
        <ele>2578.0</ele>
      </trkpt>
      <trkpt lat="42.696621" lon="-0.033893">
        <time>1970-01-01T00:00:00+00:00</time>
        <ele>2576.0</ele>
      </trkpt>
      <trkpt lat="42.696901" lon="-0.034681">
        <time>1970-01-01T00:00:00+00:00</time>
        <ele>2592.0</ele>
      </trkpt>
      <trkpt lat="42.697367" lon="-0.034884">
        <time>1970-01-01T00:00:00+00:00</time>
        <ele>2581.0</ele>
      </trkpt>
      <trkpt lat="42.69766" lon="-0.034928">
        <time>1970-01-01T00:00:00+00:00</time>
        <ele>2589.0</ele>
      </trkpt>
      <trkpt lat="42.697722" lon="-0.035121">
        <time>1970-01-01T00:00:00+00:00</time>
        <ele>2583.0</ele>
      </trkpt>
      <trkpt lat="42.697698" lon="-0.035293">
        <time>1970-01-01T00:00:00+00:00</time>
        <ele>2576.0</ele>
      </trkpt>
      <trkpt lat="42.697464" lon="-0.035228">
        <time>1970-01-01T00:00:00+00:00</time>
        <ele>2577.0</ele>
      </trkpt>
      <trkpt lat="42.697448" lon="-0.035324">
        <time>1970-01-01T00:00:00+00:00</time>
        <ele>2575.0</ele>
      </trkpt>
      <trkpt lat="42.697538" lon="-0.035674">
        <time>1970-01-01T00:00:00+00:00</time>
        <ele>2567.0</ele>
      </trkpt>
      <trkpt lat="42.697655" lon="-0.035756">
        <time>1970-01-01T00:00:00+00:00</time>
        <ele>2562.0</ele>
      </trkpt>
      <trkpt lat="42.697709" lon="-0.035923">
        <time>1970-01-01T00:00:00+00:00</time>
        <ele>2556.0</ele>
      </trkpt>
      <trkpt lat="42.69784" lon="-0.035896">
        <time>1970-01-01T00:00:00+00:00</time>
        <ele>2553.0</ele>
      </trkpt>
      <trkpt lat="42.697941" lon="-0.035966">
        <time>1970-01-01T00:00:00+00:00</time>
        <ele>2549.0</ele>
      </trkpt>
      <trkpt lat="42.698032" lon="-0.035864">
        <time>1970-01-01T00:00:00+00:00</time>
        <ele>2549.0</ele>
      </trkpt>
      <trkpt lat="42.698468" lon="-0.035802">
        <time>1970-01-01T00:00:00+00:00</time>
        <ele>2540.0</ele>
      </trkpt>
      <trkpt lat="42.698538" lon="-0.035989">
        <time>1970-01-01T00:00:00+00:00</time>
        <ele>2532.0</ele>
      </trkpt>
      <trkpt lat="42.698733" lon="-0.035947">
        <time>1970-01-01T00:00:00+00:00</time>
        <ele>2527.0</ele>
      </trkpt>
      <trkpt lat="42.698762" lon="-0.036061">
        <time>1970-01-01T00:00:00+00:00</time>
        <ele>2520.0</ele>
      </trkpt>
      <trkpt lat="42.69888" lon="-0.036082">
        <time>1970-01-01T00:00:00+00:00</time>
        <ele>2515.0</ele>
      </trkpt>
      <trkpt lat="42.698899" lon="-0.036308">
        <time>1970-01-01T00:00:00+00:00</time>
        <ele>2506.0</ele>
      </trkpt>
      <trkpt lat="42.698984" lon="-0.036384">
        <time>1970-01-01T00:00:00+00:00</time>
        <ele>2501.0</ele>
      </trkpt>
      <trkpt lat="42.699012" lon="-0.036586">
        <time>1970-01-01T00:00:00+00:00</time>
        <ele>2494.0</ele>
      </trkpt>
      <trkpt lat="42.6991" lon="-0.036506">
        <time>1970-01-01T00:00:00+00:00</time>
        <ele>2492.0</ele>
      </trkpt>
      <trkpt lat="42.69909" lon="-0.036607">
        <time>1970-01-01T00:00:00+00:00</time>
        <ele>2489.0</ele>
      </trkpt>
      <trkpt lat="42.69918" lon="-0.036581">
        <time>1970-01-01T00:00:00+00:00</time>
        <ele>2485.0</ele>
      </trkpt>
      <trkpt lat="42.69918" lon="-0.036689">
        <time>1970-01-01T00:00:00+00:00</time>
        <ele>2482.0</ele>
      </trkpt>
      <trkpt lat="42.699312" lon="-0.036763">
        <time>1970-01-01T00:00:00+00:00</time>
        <ele>2474.0</ele>
      </trkpt>
      <trkpt lat="42.699299" lon="-0.03696">
        <time>1970-01-01T00:00:00+00:00</time>
        <ele>2471.0</ele>
      </trkpt>
      <trkpt lat="42.699384" lon="-0.037174">
        <time>1970-01-01T00:00:00+00:00</time>
        <ele>2463.0</ele>
      </trkpt>
      <trkpt lat="42.699433" lon="-0.037575">
        <time>1970-01-01T00:00:00+00:00</time>
        <ele>2458.0</ele>
      </trkpt>
      <trkpt lat="42.699575" lon="-0.037824">
        <time>1970-01-01T00:00:00+00:00</time>
        <ele>2449.0</ele>
      </trkpt>
      <trkpt lat="42.699757" lon="-0.037936">
        <time>1970-01-01T00:00:00+00:00</time>
        <ele>2442.0</ele>
      </trkpt>
      <trkpt lat="42.699989" lon="-0.03821">
        <time>1970-01-01T00:00:00+00:00</time>
        <ele>2436.0</ele>
      </trkpt>
      <trkpt lat="42.70006" lon="-0.038193">
        <time>1970-01-01T00:00:00+00:00</time>
        <ele>2432.0</ele>
      </trkpt>
      <trkpt lat="42.700086" lon="-0.03789">
        <time>1970-01-01T00:00:00+00:00</time>
        <ele>2425.0</ele>
      </trkpt>
      <trkpt lat="42.700333" lon="-0.038135">
        <time>1970-01-01T00:00:00+00:00</time>
        <ele>2418.0</ele>
      </trkpt>
      <trkpt lat="42.700532" lon="-0.038206">
        <time>1970-01-01T00:00:00+00:00</time>
        <ele>2408.0</ele>
      </trkpt>
      <trkpt lat="42.700522" lon="-0.038548">
        <time>1970-01-01T00:00:00+00:00</time>
        <ele>2407.0</ele>
      </trkpt>
      <trkpt lat="42.700571" lon="-0.038775">
        <time>1970-01-01T00:00:00+00:00</time>
        <ele>2400.0</ele>
      </trkpt>
      <trkpt lat="42.700503" lon="-0.039051">
        <time>1970-01-01T00:00:00+00:00</time>
        <ele>2402.0</ele>
      </trkpt>
      <trkpt lat="42.700658" lon="-0.039922">
        <time>1970-01-01T00:00:00+00:00</time>
        <ele>2390.0</ele>
      </trkpt>
      <trkpt lat="42.70081" lon="-0.040405">
        <time>1970-01-01T00:00:00+00:00</time>
        <ele>2384.0</ele>
      </trkpt>
      <trkpt lat="42.700776" lon="-0.041041">
        <time>1970-01-01T00:00:00+00:00</time>
        <ele>2386.0</ele>
      </trkpt>
      <trkpt lat="42.700599" lon="-0.041701">
        <time>1970-01-01T00:00:00+00:00</time>
        <ele>2394.0</ele>
      </trkpt>
      <trkpt lat="42.700661" lon="-0.042251">
        <time>1970-01-01T00:00:00+00:00</time>
        <ele>2390.0</ele>
      </trkpt>
      <trkpt lat="42.701015" lon="-0.043344">
        <time>1970-01-01T00:00:00+00:00</time>
        <ele>2385.0</ele>
      </trkpt>
      <trkpt lat="42.701029" lon="-0.043677">
        <time>1970-01-01T00:00:00+00:00</time>
        <ele>2388.0</ele>
      </trkpt>
      <trkpt lat="42.701274" lon="-0.044349">
        <time>1970-01-01T00:00:00+00:00</time>
        <ele>2385.0</ele>
      </trkpt>
      <trkpt lat="42.701344" lon="-0.04472">
        <time>1970-01-01T00:00:00+00:00</time>
        <ele>2383.0</ele>
      </trkpt>
      <trkpt lat="42.701298" lon="-0.04494">
        <time>1970-01-01T00:00:00+00:00</time>
        <ele>2385.0</ele>
      </trkpt>
      <trkpt lat="42.701347" lon="-0.045411">
        <time>1970-01-01T00:00:00+00:00</time>
        <ele>2381.0</ele>
      </trkpt>
      <trkpt lat="42.701465" lon="-0.045717">
        <time>1970-01-01T00:00:00+00:00</time>
        <ele>2375.0</ele>
      </trkpt>
      <trkpt lat="42.701411" lon="-0.046233">
        <time>1970-01-01T00:00:00+00:00</time>
        <ele>2378.0</ele>
      </trkpt>
      <trkpt lat="42.70158" lon="-0.047093">
        <time>1970-01-01T00:00:00+00:00</time>
        <ele>2370.0</ele>
      </trkpt>
      <trkpt lat="42.701826" lon="-0.047637">
        <time>1970-01-01T00:00:00+00:00</time>
        <ele>2359.0</ele>
      </trkpt>
      <trkpt lat="42.701985" lon="-0.047651">
        <time>1970-01-01T00:00:00+00:00</time>
        <ele>2353.0</ele>
      </trkpt>
      <trkpt lat="42.702079" lon="-0.047763">
        <time>1970-01-01T00:00:00+00:00</time>
        <ele>2352.0</ele>
      </trkpt>
      <trkpt lat="42.702041" lon="-0.048237">
        <time>1970-01-01T00:00:00+00:00</time>
        <ele>2354.0</ele>
      </trkpt>
      <trkpt lat="42.701944" lon="-0.04849">
        <time>1970-01-01T00:00:00+00:00</time>
        <ele>2357.0</ele>
      </trkpt>
      <trkpt lat="42.702072" lon="-0.048718">
        <time>1970-01-01T00:00:00+00:00</time>
        <ele>2351.0</ele>
      </trkpt>
      <trkpt lat="42.702014" lon="-0.0489">
        <time>1970-01-01T00:00:00+00:00</time>
        <ele>2352.0</ele>
      </trkpt>
      <trkpt lat="42.702" lon="-0.049415">
        <time>1970-01-01T00:00:00+00:00</time>
        <ele>2348.0</ele>
      </trkpt>
      <trkpt lat="42.702074" lon="-0.049634">
        <time>1970-01-01T00:00:00+00:00</time>
        <ele>2343.0</ele>
      </trkpt>
      <trkpt lat="42.702023" lon="-0.050106">
        <time>1970-01-01T00:00:00+00:00</time>
        <ele>2341.0</ele>
      </trkpt>
      <trkpt lat="42.702262" lon="-0.050773">
        <time>1970-01-01T00:00:00+00:00</time>
        <ele>2325.0</ele>
      </trkpt>
      <trkpt lat="42.70217" lon="-0.051051">
        <time>1970-01-01T00:00:00+00:00</time>
        <ele>2329.0</ele>
      </trkpt>
      <trkpt lat="42.702422" lon="-0.052039">
        <time>1970-01-01T00:00:00+00:00</time>
        <ele>2315.0</ele>
      </trkpt>
      <trkpt lat="42.70234" lon="-0.054056">
        <time>1970-01-01T00:00:00+00:00</time>
        <ele>2316.0</ele>
      </trkpt>
      <trkpt lat="42.702156" lon="-0.05468">
        <time>1970-01-01T00:00:00+00:00</time>
        <ele>2317.0</ele>
      </trkpt>
      <trkpt lat="42.702261" lon="-0.055185">
        <time>1970-01-01T00:00:00+00:00</time>
        <ele>2314.0</ele>
      </trkpt>
      <trkpt lat="42.7022" lon="-0.055692">
        <time>1970-01-01T00:00:00+00:00</time>
        <ele>2316.0</ele>
      </trkpt>
      <trkpt lat="42.702378" lon="-0.056095">
        <time>1970-01-01T00:00:00+00:00</time>
        <ele>2315.0</ele>
      </trkpt>
      <trkpt lat="42.702545" lon="-0.056319">
        <time>1970-01-01T00:00:00+00:00</time>
        <ele>2314.0</ele>
      </trkpt>
      <trkpt lat="42.702513" lon="-0.056616">
        <time>1970-01-01T00:00:00+00:00</time>
        <ele>2317.0</ele>
      </trkpt>
      <trkpt lat="42.702655" lon="-0.056955">
        <time>1970-01-01T00:00:00+00:00</time>
        <ele>2316.0</ele>
      </trkpt>
      <trkpt lat="42.702662" lon="-0.057444">
        <time>1970-01-01T00:00:00+00:00</time>
        <ele>2318.0</ele>
      </trkpt>
      <trkpt lat="42.702786" lon="-0.057905">
        <time>1970-01-01T00:00:00+00:00</time>
        <ele>2317.0</ele>
      </trkpt>
      <trkpt lat="42.702839" lon="-0.058878">
        <time>1970-01-01T00:00:00+00:00</time>
        <ele>2321.0</ele>
      </trkpt>
      <trkpt lat="42.70298" lon="-0.059127">
        <time>1970-01-01T00:00:00+00:00</time>
        <ele>2321.0</ele>
      </trkpt>
      <trkpt lat="42.702995" lon="-0.059444">
        <time>1970-01-01T00:00:00+00:00</time>
        <ele>2324.0</ele>
      </trkpt>
      <trkpt lat="42.703147" lon="-0.060026">
        <time>1970-01-01T00:00:00+00:00</time>
        <ele>2326.0</ele>
      </trkpt>
      <trkpt lat="42.703156" lon="-0.060455">
        <time>1970-01-01T00:00:00+00:00</time>
        <ele>2328.0</ele>
      </trkpt>
      <trkpt lat="42.70327" lon="-0.060953">
        <time>1970-01-01T00:00:00+00:00</time>
        <ele>2322.0</ele>
      </trkpt>
      <trkpt lat="42.703237" lon="-0.06117">
        <time>1970-01-01T00:00:00+00:00</time>
        <ele>2322.0</ele>
      </trkpt>
      <trkpt lat="42.703305" lon="-0.061895">
        <time>1970-01-01T00:00:00+00:00</time>
        <ele>2315.0</ele>
      </trkpt>
      <trkpt lat="42.70341" lon="-0.061951">
        <time>1970-01-01T00:00:00+00:00</time>
        <ele>2308.0</ele>
      </trkpt>
      <trkpt lat="42.703474" lon="-0.062115">
        <time>1970-01-01T00:00:00+00:00</time>
        <ele>2305.0</ele>
      </trkpt>
      <trkpt lat="42.703579" lon="-0.062976">
        <time>1970-01-01T00:00:00+00:00</time>
        <ele>2295.0</ele>
      </trkpt>
      <trkpt lat="42.703574" lon="-0.06332">
        <time>1970-01-01T00:00:00+00:00</time>
        <ele>2291.0</ele>
      </trkpt>
      <trkpt lat="42.703712" lon="-0.063928">
        <time>1970-01-01T00:00:00+00:00</time>
        <ele>2278.0</ele>
      </trkpt>
      <trkpt lat="42.704222" lon="-0.06354">
        <time>1970-01-01T00:00:00+00:00</time>
        <ele>2253.0</ele>
      </trkpt>
      <trkpt lat="42.704673" lon="-0.063559">
        <time>1970-01-01T00:00:00+00:00</time>
        <ele>2255.0</ele>
      </trkpt>
      <trkpt lat="42.705115" lon="-0.063318">
        <time>1970-01-01T00:00:00+00:00</time>
        <ele>2245.0</ele>
      </trkpt>
      <trkpt lat="42.705524" lon="-0.063222">
        <time>1970-01-01T00:00:00+00:00</time>
        <ele>2245.0</ele>
      </trkpt>
      <trkpt lat="42.706771" lon="-0.062228">
        <time>1970-01-01T00:00:00+00:00</time>
        <ele>2227.0</ele>
      </trkpt>
      <trkpt lat="42.707145" lon="-0.06183">
        <time>1970-01-01T00:00:00+00:00</time>
        <ele>2225.0</ele>
      </trkpt>
      <trkpt lat="42.707241" lon="-0.06166">
        <time>1970-01-01T00:00:00+00:00</time>
        <ele>2224.0</ele>
      </trkpt>
      <trkpt lat="42.707268" lon="-0.061348">
        <time>1970-01-01T00:00:00+00:00</time>
        <ele>2218.0</ele>
      </trkpt>
      <trkpt lat="42.707496" lon="-0.060947">
        <time>1970-01-01T00:00:00+00:00</time>
        <ele>2213.0</ele>
      </trkpt>
      <trkpt lat="42.707909" lon="-0.060469">
        <time>1970-01-01T00:00:00+00:00</time>
        <ele>2209.0</ele>
      </trkpt>
      <trkpt lat="42.708851" lon="-0.059586">
        <time>1970-01-01T00:00:00+00:00</time>
        <ele>2201.0</ele>
      </trkpt>
      <trkpt lat="42.708928" lon="-0.059387">
        <time>1970-01-01T00:00:00+00:00</time>
        <ele>2195.0</ele>
      </trkpt>
      <trkpt lat="42.709786" lon="-0.058653">
        <time>1970-01-01T00:00:00+00:00</time>
        <ele>2198.0</ele>
      </trkpt>
      <trkpt lat="42.710831" lon="-0.057062">
        <time>1970-01-01T00:00:00+00:00</time>
        <ele>2196.0</ele>
      </trkpt>
      <trkpt lat="42.71111" lon="-0.056795">
        <time>1970-01-01T00:00:00+00:00</time>
        <ele>2197.0</ele>
      </trkpt>
      <trkpt lat="42.711576" lon="-0.056497">
        <time>1970-01-01T00:00:00+00:00</time>
        <ele>2199.0</ele>
      </trkpt>
      <trkpt lat="42.711954" lon="-0.055847">
        <time>1970-01-01T00:00:00+00:00</time>
        <ele>2200.0</ele>
      </trkpt>
      <trkpt lat="42.712302" lon="-0.054855">
        <time>1970-01-01T00:00:00+00:00</time>
        <ele>2202.0</ele>
      </trkpt>
      <trkpt lat="42.712336" lon="-0.054474">
        <time>1970-01-01T00:00:00+00:00</time>
        <ele>2201.0</ele>
      </trkpt>
      <trkpt lat="42.712708" lon="-0.053084">
        <time>1970-01-01T00:00:00+00:00</time>
        <ele>2199.0</ele>
      </trkpt>
      <trkpt lat="42.712798" lon="-0.052306">
        <time>1970-01-01T00:00:00+00:00</time>
        <ele>2196.0</ele>
      </trkpt>
      <trkpt lat="42.712881" lon="-0.052048">
        <time>1970-01-01T00:00:00+00:00</time>
        <ele>2198.0</ele>
      </trkpt>
      <trkpt lat="42.713204" lon="-0.051243">
        <time>1970-01-01T00:00:00+00:00</time>
        <ele>2204.0</ele>
      </trkpt>
      <trkpt lat="42.713569" lon="-0.050698">
        <time>1970-01-01T00:00:00+00:00</time>
        <ele>2209.0</ele>
      </trkpt>
    </trkseg>
  </trk>
</gpx>
